                ,  0.301,  0.397,  0.494,  0.590,  0.687,  0.784,  0.880,  0.977,  1.073,  1.170,  1.267,  1.363,  1.460,  1.556,  1.653,  1.749,  1.846,  1.943,  2.039,  2.136,  2.232,  2.329,  2.426,  2.522,  2.619,  2.715,  2.812,  2.909,  3.005,  3.102,  3.198,  3.295,  3.392,  3.488,  3.585,  3.681,  3.778,  3.875,  3.971,  4.068,  4.164,  4.261,  4.357,  4.454,  4.551,  4.647,  4.744,  4.840,  4.937,  5.034,  5.130,  5.227,  5.323,  5.420,  5.517,  5.613,  5.710,  5.806,  5.903,  6.000,  6.096,  6.193,  6.289,  6.386,  6.483,  6.579,  6.676,  6.772,  6.869,  6.965,  7.062,  7.159,  7.255,  7.352,  7.448,  7.545,  7.642,  7.738,  7.835,  7.931
2012/03/22 00:00,  999.0,  999.0,    0.3,    0.3,    0.6,    1.0,    0.1,    0.2,    0.2,    0.3,    0.4,    0.2,    0.3,    0.2,   -0.0,   -0.1,   -0.1,    0.0,    0.3,   -0.1,   -0.1,   -0.0,    0.0,    0.3,   -0.1,    0.1,    0.1,   -0.0,   -0.2,    0.0,    0.1,   -0.2,   -0.3,    0.0,   -0.1,  999.0,   -0.2,   -0.8,   -0.1,   -0.0,   -0.0,    0.1,    0.1,   -0.0,    0.1,    0.1,    0.0,    0.4,   -0.2,   -0.2,    0.2,   -0.0,    0.2,    0.1,    0.2,   -0.1,    0.1,   -0.1,    0.2,   -0.2,    0.1,   -0.0,    0.0,   -0.1,   -0.1,    0.1,    0.1,    0.0,   -0.2,  999.0,  999.0,  999.0,  999.0,  999.0,  999.0,  999.0,  999.0,  999.0,  999.0,  999.0
2012/03/22 00:10,  999.0,  999.0,    0.1,    0.6,    0.4,    0.4,    0.3,    0.1,    0.2,   -0.0,    0.5,    0.7,    0.2,    0.5,    0.2,   -0.0,   -0.1,   -0.1,   -0.1,    0.0,   -0.1,   -0.1,   -0.1,   -0.1,    0.1,    0.1,   -0.1,   -0.0,    0.1,    0.0,    0.1,   -0.1,    0.2,    0.1,   -0.1,   -0.1,   -0.1,    0.2,    0.1,    0.0,   -0.1,   -0.1,   -0.1,   -0.2,    0.0,   -0.1,    0.0,   -0.1,   -0.0,   -0.1,   -0.0,    0.1,    0.1,    0.0,   -0.2,    0.0,   -0.0,    0.1,    0.0,    0.0,    0.0,   -0.0,   -0.0,    0.0,    0.2,   -0.0,   -0.0,   -0.1,   -0.2,   -0.1,  999.0,  999.0,  999.0,  999.0,  999.0,  999.0,  999.0,  999.0,  999.0,  999.0
2012/03/22 00:20,  999.0,  999.0,  999.0,    0.1,    0.0,    0.1,    0.0,    0.0,    0.1,    0.0,    0.0,    0.1,    0.1,    0.1,    0.0,   -0.0,    0.0,    0.1,    0.1,    0.1,   -0.1,    0.0,    0.1,   -0.1,   -0.1,   -0.1,    0.0,    0.1,    0.0,    0.0,    0.0,    0.1,    0.0,   -0.1,    0.0,   -0.1,    0.1,    0.0,   -0.0,   -0.1,   -0.0,    0.0,    0.1,   -0.0,   -0.0,   -0.0,    0.0,   -0.1,   -0.0,    0.0,    0.0,    0.0,    0.0,    0.0,    0.0,    0.1,    0.1,    0.1,    0.0,    0.0,    0.1,    0.0,   -0.0,   -0.0,    0.0,   -0.1,   -0.1,   -0.1,    0.1,    0.2,  999.0,  999.0,  999.0,  999.0,  999.0,  999.0,  999.0,  999.0,  999.0,  999.0
2012/03/22 00:30,  999.0,  999.0,  999.0,   -0.0,    0.1,    0.0,   -0.1,   -0.0,    0.1,    0.0,    0.1,    0.1,    0.0,   -0.1,   -0.0,   -0.1,   -0.0,   -0.0,    0.1,    0.1,    0.1,    0.1,    0.1,   -0.1,   -0.0,    0.0,    0.1,    0.0,    0.1,   -0.0,   -0.0,   -0.0,   -0.1,    0.0,    0.1,    0.1,    0.1,    0.0,    0.0,    0.1,   -0.0,    0.0,    0.1,    0.1,    0.1,    0.1,    0.0,   -0.0,   -0.0,   -0.0,   -0.0,    0.1,   -0.0,   -0.0,    0.0,   -0.0,   -0.1,    0.0,   -0.0,    0.1,   -0.0,    0.1,    0.0,    0.0,   -0.1,   -0.0,    0.1,   -0.0,    0.0,    0.1,  999.0,  999.0,  999.0,  999.0,  999.0,  999.0,  999.0,  999.0,  999.0,  999.0
2012/03/22 00:40,  999.0,  999.0,  999.0,    0.2,    0.5,    0.5,    0.5,    0.5,    0.3,    0.2,    0.2,    0.0,    0.3,    0.0,    0.0,    0.0,   -0.0,   -0.0,   -0.1,   -0.0,   -0.0,    0.0,   -0.1,   -0.1,   -0.1,   -0.1,    0.0,    0.1,    0.0,    0.1,   -0.0,   -0.1,   -0.1,   -0.0,   -0.0,   -0.3,   -0.0,   -0.6,   -0.0,    0.1,   -0.0,   -0.0,   -0.1,    0.0,    0.1,    0.1,    0.1,   -0.0,    0.0,    0.0,    0.0,    0.0,    0.1,   -0.0,    0.0,    0.1,   -0.0,   -0.1,   -0.1,   -0.1,   -0.0,   -0.0,   -0.0,    0.0,   -0.1,    0.1,   -0.1,    0.0,   -0.1,  999.0,  999.0,  999.0,  999.0,  999.0,  999.0,  999.0,  999.0,  999.0,  999.0,  999.0
2012/03/22 00:50,  999.0,  999.0,    0.6,    0.5,    0.5,    0.6,    0.4,    0.2,    0.1,   -0.1,    0.4,    0.2,    0.3,    0.2,    0.0,   -0.1,   -0.1,    0.1,    0.1,    0.0,    0.0,    0.0,    0.1,   -0.1,   -0.1,    0.1,   -0.0,    0.0,    0.1,   -0.1,   -0.0,   -0.1,   -0.2,    0.2,   -0.2,    0.3,    0.2,   -0.1,   -0.1,   -0.1,   -0.0,   -0.1,    0.1,   -0.2,   -0.0,   -0.1,   -0.0,    0.0,    0.0,   -0.0,    0.0,    0.0,    0.1,    0.1,   -0.1,   -0.0,    0.0,   -0.0,    0.0,    0.1,    0.0,    0.0,   -0.1,  999.0,  999.0,    0.0,    0.0,   -0.1,   -0.2,  999.0,  999.0,  999.0,  999.0,  999.0,  999.0,  999.0,  999.0,  999.0,  999.0,  999.0
2012/03/22 01:00,  999.0,   -0.2,    1.4,    1.1,    1.0,    1.5,    0.4,    0.1,    0.6,    1.2,    1.7,    1.2,    0.7,    0.6,    0.3,    0.1,    0.1,    0.0,    0.0,    0.0,    0.1,    0.5,    0.0,    0.0,   -0.0,    0.0,    0.0,    0.1,    0.0,    0.1,   -0.2,   -0.2,    0.0,    0.0,   -0.0,    0.0,  999.0,   -0.4,    0.1,    0.2,    0.0,   -0.1,   -0.0,   -0.0,   -0.1,   -0.0,   -0.1,   -0.0,    0.0,   -0.0,   -0.0,   -0.0,   -0.1,    0.0,   -0.2,   -0.2,   -0.2,    0.0,    0.0,   -0.2,    0.0,   -0.0,   -0.1,   -0.0,  999.0,    0.1,   -0.0,   -0.0,   -0.2,  999.0,  999.0,  999.0,  999.0,  999.0,  999.0,  999.0,  999.0,  999.0,  999.0,  999.0
2012/03/22 01:10,  999.0,    0.3,    0.3,    1.1,    1.4,    1.4,    0.6,    0.1,    0.4,    1.1,    3.8,    2.9,    1.3,    0.5,    0.4,    0.1,    0.0,    0.1,    0.0,    0.0,    0.1,   -0.1,   -0.1,    0.1,   -0.0,    0.1,    0.1,   -0.1,   -0.0,    0.0,   -0.0,   -0.2,   -0.1,    0.0,   -0.0,    0.2,    0.1,   -0.0,   -0.0,    0.0,   -0.2,   -0.1,   -0.0,   -0.0,    0.1,    0.1,    0.0,   -0.0,    0.1,    0.0,    0.0,    0.0,    0.0,    0.1,   -0.1,   -0.0,   -0.0,    0.1,   -0.0,   -0.1,   -0.1,   -0.1,   -0.1,   -0.0,   -0.1,    0.1,    0.2,   -0.0,  999.0,  999.0,  999.0,  999.0,  999.0,  999.0,  999.0,  999.0,  999.0,  999.0,  999.0,  999.0
2012/03/22 01:20,  999.0,    0.0,   -1.4,    0.3,   -0.4,   -0.0,   -0.1,    0.0,    1.1,  999.0,  999.0,  999.0,  999.0,    3.0,  999.0,    0.3,  999.0,    0.4,    0.1,   -0.1,   -0.2,   -0.2,   -0.1,   -0.0,   -0.1,    0.2,   -0.1,   -0.4,    0.0,    0.0,    0.3,    0.1,   -0.4,  999.0,   -0.0,  999.0,   -0.0,   -0.0,    0.0,    0.1,   -0.1,    0.1,    0.0,    0.1,   -0.1,  999.0,   -0.1,   -0.1,    0.0,    0.0,    0.1,    0.1,    0.0,   -0.0,    0.1,   -0.1,   -0.0,   -0.1,    0.0,    0.0,   -0.0,   -0.1,   -0.1,  999.0,   -0.0,    0.0,   -0.0,   -0.1,   -0.2,  999.0,  999.0,  999.0,  999.0,  999.0,  999.0,  999.0,  999.0,  999.0,  999.0,  999.0
2012/03/22 01:30,  999.0,   -1.5,  999.0,   -0.3,   -0.4,   -0.1,   -0.4,    0.1,    3.1,    5.3,  999.0,  999.0,    3.2,    3.1,    3.4,    4.1,  999.0,    0.1,    0.2,    0.0,    0.2,    0.0,    0.1,    0.1,   -0.3,   -0.1,   -0.3,    0.1,   -0.2,    0.4,   -0.0,    0.1,    0.0,   -0.1,    0.0,    0.0,    0.1,    0.2,    0.0,   -0.0,   -0.1,   -0.1,    0.0,    0.2,    0.1,    0.0,   -0.0,   -0.1,    0.0,   -0.1,    0.0,    0.0,   -0.0,    0.0,   -0.0,    0.0,    0.1,   -0.1,    0.1,    0.1,    0.0,    0.0,    0.0,    0.1,    0.0,    0.1,    0.1,   -0.0,    0.1,  999.0,  999.0,  999.0,  999.0,  999.0,  999.0,  999.0,  999.0,  999.0,  999.0,  999.0
2012/03/22 01:40,  999.0,   -1.9,   -1.5,   -1.0,    0.0,    0.5,    1.6,    5.3,    7.0,    8.9,  999.0,  999.0,  999.0,  999.0,    3.7,    2.5,  999.0,    0.1,    0.3,    0.4,    0.3,    0.2,    0.3,   -0.0,    0.1,   -0.1,    0.1,   -0.1,    0.2,   -0.1,    0.0,   -0.1,    0.1,   -0.0,  999.0,   -0.2,   -0.5,   -0.1,   -0.1,    0.4,   -0.2,   -0.1,   -0.0,    0.0,   -0.1,  999.0,  999.0,    0.0,    0.1,    0.1,    0.2,    0.2,    0.1,    0.2,    0.0,   -0.1,    0.1,    0.0,   -0.2,    0.0,    0.1,    0.0,   -0.2,    0.1,    0.2,    0.3,    0.0,    0.2,    0.0,  999.0,  999.0,  999.0,  999.0,  999.0,  999.0,  999.0,  999.0,  999.0,  999.0,  999.0
2012/03/22 01:50,  999.0,   -0.2,   -0.8,  999.0,   -0.6,    0.8,    1.1,    2.2,    1.7,  999.0,  999.0,  999.0,  999.0,    3.4,    2.2,    0.6,    0.0,    0.1,    0.2,    0.3,    0.0,   -0.0,   -0.1,    0.1,    0.0,   -0.0,   -0.2,    0.1,    0.2,   -0.0,   -0.2,    0.2,   -0.1,   -0.3,   -0.1,    0.1,   -0.1,    0.2,   -0.1,    0.2,   -0.3,   -0.0,    0.1,   -0.0,   -0.1,   -0.1,  999.0,   -0.1,   -0.3,   -0.2,    0.2,    0.1,    0.1,    0.3,    0.1,   -0.0,    0.0,    0.1,   -0.0,    0.1,    0.1,    0.0,   -0.0,   -0.3,    0.1,    0.1,    0.3,  999.0,    0.4,  999.0,  999.0,  999.0,  999.0,  999.0,  999.0,  999.0,  999.0,  999.0,  999.0,  999.0
2012/03/22 02:00,  999.0,   -0.1,   -0.4,   -1.6,   -0.3,   -0.7,   -0.0,    0.2,    0.8,    4.2,    6.9,  999.0,  999.0,  999.0,    0.7,    0.6,   -0.4,    0.1,    0.0,    0.1,    0.0,    0.1,    0.1,    0.1,   -0.0,   -0.1,    0.0,    0.2,    0.0,    0.1,    0.1,   -0.1,   -0.3,   -0.2,  999.0,    0.0,  999.0,   -0.1,   -0.6,   -0.3,   -0.1,    0.0,   -0.0,    0.0,    0.1,    0.2,    0.1,    0.2,    0.2,   -0.3,   -0.1,    0.2,    0.1,   -0.0,   -0.1,    0.0,    0.1,   -0.1,    0.3,    0.2,   -0.2,   -0.1,   -0.0,   -0.0,    0.0,   -0.2,   -0.2,  999.0,  999.0,  999.0,  999.0,  999.0,  999.0,  999.0,  999.0,  999.0,  999.0,  999.0,  999.0,  999.0
2012/03/22 02:10,  999.0,    0.1,   -0.4,   -0.3,   -0.4,   -0.6,   -0.6,    0.3,    0.2,    4.5,    4.7,  999.0,    4.3,   -3.1,   -3.3,   -1.3,   -0.5,    0.1,    0.2,    0.2,    0.2,   -0.1,    0.2,   -0.2,    0.0,   -0.1,    0.5,    0.1,    0.1,   -0.4,   -0.4,    0.1,  999.0,   -0.1,   -0.0,   -0.4,  999.0,  999.0,    0.2,   -0.1,    0.1,  999.0,   -0.2,   -0.2,   -0.1,   -0.2,   -0.1,    0.0,    0.0,   -0.1,   -0.2,    0.0,    0.0,    0.2,    0.3,   -0.2,    0.2,    0.1,    0.0,   -0.2,   -0.0,   -0.1,    0.0,   -0.0,   -0.0,   -0.1,  999.0,  999.0,  999.0,  999.0,  999.0,  999.0,  999.0,  999.0,  999.0,  999.0,  999.0,  999.0,  999.0,  999.0
2012/03/22 02:20,  999.0,    0.0,   -0.0,   -0.1,   -0.4,    0.0,    0.2,    0.8,    1.4,    1.2,    4.9,    6.5,    4.7,    7.2,    2.5,    2.2,    0.2,    0.2,    0.2,    0.2,    0.1,    0.0,   -0.2,    0.1,    0.2,   -0.2,   -0.2,    0.2,    0.3,    0.1,    0.3,   -0.1,   -0.0,  999.0,    0.0,   -0.1,  999.0,    0.2,   -0.1,   -0.2,   -0.1,   -0.2,    0.1,   -0.1,   -0.1,   -0.2,   -0.1,    0.1,    0.1,    0.2,    0.5,   -0.0,    0.0,   -0.2,    0.2,  999.0,   -0.1,   -0.2,    0.1,   -0.2,    0.2,    0.3,    0.4,    0.1,   -0.0,    0.0,   -0.1,  999.0,  999.0,  999.0,  999.0,  999.0,  999.0,  999.0,  999.0,  999.0,  999.0,  999.0,  999.0,  999.0
2012/03/22 02:30,  999.0,   -0.2,   -1.2,   -0.7,   -0.4,   -0.8,   -1.0,    0.1,  999.0,  999.0,  999.0,  999.0,  999.0,  999.0,  999.0,  999.0,  999.0,    0.5,    0.4,    0.0,    0.3,   -0.2,    0.1,   -0.1,    0.0,   -0.1,   -0.1,   -0.1,    0.0,   -0.2,   -0.1,   -0.3,   -0.0,   -0.1,   -0.0,    0.1,    0.3,    0.1,   -0.0,   -0.4,   -0.5,    0.0,   -0.1,   -0.1,   -0.3,   -0.1,   -0.2,   -0.2,   -0.0,   -0.3,   -0.1,    0.0,    0.3,    0.1,   -0.0,    0.2,    0.1,   -0.1,    0.1,   -0.1,    0.0,    0.1,   -0.0,   -0.0,    0.2,    0.3,  999.0,   -0.1,   -0.0,  999.0,  999.0,  999.0,  999.0,  999.0,  999.0,  999.0,  999.0,  999.0,  999.0,  999.0
2012/03/22 02:40,  999.0,   -0.4,  999.0,   -0.7,    0.3,   -0.6,   -0.6,  999.0,  999.0,  999.0,   11.1,   12.3,  999.0,  999.0,  999.0,    3.1,    0.2,    0.4,    0.5,    0.2,    0.1,    0.3,    0.0,    0.1,   -0.1,    0.1,    0.1,   -0.1,    0.0,    0.2,    0.1,   -0.1,   -0.2,   -0.3,    0.1,  999.0,    0.1,   -0.2,    0.0,    0.1,   -0.1,    0.3,   -0.3,   -0.4,    0.2,    0.3,   -0.0,   -0.6,  999.0,   -0.2,   -0.3,   -0.0,    0.1,    0.0,   -0.0,    0.1,    0.2,    0.1,    0.1,    0.0,   -0.1,    0.2,   -0.3,    0.0,   -0.1,    0.1,  999.0,    0.2,  999.0,  999.0,  999.0,  999.0,  999.0,  999.0,  999.0,  999.0,  999.0,  999.0,  999.0,  999.0
2012/03/22 02:50,  999.0,    0.4,  999.0,    1.5,    0.3,    1.6,    1.3,    0.7,    5.7,    4.7,    7.2,    5.9,    4.8,    4.5,    2.5,    0.8,    1.1,    1.2,    0.2,   -0.0,   -0.0,    0.1,   -0.2,   -0.1,    0.0,    0.1,    0.0,   -0.1,   -0.1,   -0.0,    0.1,   -0.1,   -0.2,  999.0,  999.0,   -0.1,    0.2,  999.0,   -0.3,    0.0,   -0.2,   -0.3,   -0.1,   -0.0,    0.0,    0.0,   -0.0,   -0.1,    0.1,  999.0,  999.0,    0.1,   -0.0,   -0.2,   -0.1,   -0.1,   -0.2,    0.1,    0.2,    0.1,    0.0,   -0.0,    0.2,    0.2,   -0.1,    0.5,    0.0,    0.2,  999.0,  999.0,  999.0,  999.0,  999.0,  999.0,  999.0,  999.0,  999.0,  999.0,  999.0,  999.0
2012/03/22 03:00,  999.0,   -0.0,    0.3,    1.3,    0.9,    1.5,    0.4,    0.9,  999.0,    7.6,    9.0,  999.0,    4.4,  999.0,    5.8,    3.4,    0.6,    0.8,    0.1,   -0.2,   -0.2,  999.0,  999.0,  999.0,    0.4,  999.0,  999.0,    0.2,    0.1,   -0.0,   -0.1,  999.0,  999.0,  999.0,    0.0,   -0.1,    0.2,  999.0,  999.0,   -0.0,   -0.6,   -0.4,  999.0,    0.2,   -0.1,   -0.4,   -0.1,    0.1,  999.0,  999.0,    0.1,  999.0,    0.1,   -0.0,    0.1,   -0.0,   -0.3,    0.1,   -0.0,    0.3,   -0.1,    0.0,   -0.2,    0.5,    0.4,  999.0,  999.0,  999.0,  999.0,  999.0,  999.0,  999.0,  999.0,  999.0,  999.0,  999.0,  999.0,  999.0,  999.0,  999.0
2012/03/22 03:10,  999.0,   -0.2,  999.0,  999.0,    0.0,    0.1,    3.0,  999.0,  999.0,  999.0,  999.0,   13.6,  999.0,   11.7,   14.1,    9.1,    9.3,  999.0,  999.0,  999.0,  999.0,   -0.0,  999.0,   -0.0,  999.0,    0.2,    0.3,    0.3,   -0.2,   -0.1,   -0.1,   -0.0,   -0.3,   -0.3,   -0.0,    0.1,   -0.0,  999.0,    0.1,   -0.1,   -0.1,    0.1,   -0.1,    0.2,   -0.1,    0.4,    0.3,   -0.2,    0.1,  999.0,  999.0,    0.1,   -0.1,   -0.1,   -0.2,   -0.0,   -0.2,    0.0,   -0.3,   -0.0,   -0.2,  999.0,    0.0,    0.2,    0.2,  999.0,    0.3,  999.0,  999.0,  999.0,  999.0,  999.0,  999.0,  999.0,  999.0,  999.0,  999.0,  999.0,  999.0,  999.0
2012/03/22 03:20,  999.0,  999.0,  999.0,  999.0,    1.2,   -0.3,    0.3,    1.7,    6.1,  999.0,  999.0,  999.0,  999.0,  999.0,    2.4,    0.3,    0.3,    0.9,    0.3,   -0.1,    0.3,    0.1,    0.2,    0.1,   -0.0,  999.0,    0.4,   -0.3,    0.1,    0.1,    0.2,    0.2,  999.0,    0.0,   -0.1,  999.0,  999.0,  999.0,    0.3,    0.1,   -0.1,  999.0,    0.0,   -0.0,   -0.0,   -0.1,   -0.1,    0.2,   -0.1,   -0.3,  999.0,   -0.1,    0.1,   -0.1,    0.0,   -0.1,   -0.1,   -0.4,   -0.6,    0.2,    0.0,    0.0,    0.1,    0.1,    0.2,    0.3,    0.2,  999.0,  999.0,  999.0,  999.0,  999.0,  999.0,  999.0,  999.0,  999.0,  999.0,  999.0,  999.0,  999.0
2012/03/22 03:30,  999.0,   -0.8,   -0.7,    1.5,    3.3,    4.4,    6.0,    5.6,    7.1,    7.7,  999.0,    6.0,    7.0,    4.7,    3.1,    1.3,    0.2,    0.1,   -0.1,    0.0,   -0.0,   -0.0,   -0.2,   -0.1,    0.2,    0.2,    0.0,    0.1,    0.2,   -0.1,    0.2,    0.1,    0.1,   -0.1,   -0.0,    0.2,   -0.1,   -0.2,   -0.1,   -0.3,   -0.4,   -0.4,  999.0,    0.1,   -0.1,   -0.2,   -0.0,   -0.2,   -0.0,   -0.0,    0.3,   -0.1,   -0.3,    0.0,    0.1,    0.0,   -0.1,    0.1,   -0.1,   -0.1,   -0.3,    0.1,   -0.0,   -0.2,  999.0,  999.0,    0.2,  999.0,  999.0,  999.0,  999.0,  999.0,  999.0,  999.0,  999.0,  999.0,  999.0,  999.0,  999.0,  999.0
2012/03/22 03:40,  999.0,   -0.7,   -0.7,    0.9,    3.3,    4.9,    5.8,    6.7,    6.9,   10.6,  999.0,   13.7,    6.3,    0.4,    2.4,    3.2,    1.0,   -0.0,   -0.0,    0.0,    0.0,   -0.0,    0.4,    0.4,    0.3,   -0.0,   -0.1,    0.1,   -0.3,   -0.0,    0.3,    0.0,    0.2,  999.0,    0.1,   -0.2,   -0.3,   -0.0,    0.2,   -0.1,   -0.3,  999.0,   -0.2,   -0.1,  999.0,   -0.0,  999.0,   -0.3,   -0.2,  999.0,    0.0,  999.0,   -0.1,  999.0,   -0.2,   -0.1,   -0.2,   -0.0,    0.2,    0.0,    0.2,    0.1,    0.1,  999.0,  999.0,  999.0,  999.0,  999.0,  999.0,  999.0,  999.0,  999.0,  999.0,  999.0,  999.0,  999.0,  999.0,  999.0,  999.0,  999.0
2012/03/22 03:50,  999.0,   -0.7,    0.2,   -0.1,    1.6,    2.8,    3.6,    3.6,    4.6,    5.0,    8.9,  999.0,    3.1,    0.8,    0.1,    0.0,   -0.1,    0.1,   -0.1,   -0.1,    0.1,    0.1,    0.3,    0.3,   -0.1,    0.2,    0.2,   -0.0,   -0.0,    0.1,    0.0,   -0.1,  999.0,   -0.2,    0.1,  999.0,   -0.2,   -0.0,   -0.1,   -0.4,   -0.9,  999.0,    0.2,   -0.0,    0.1,  999.0,  999.0,  999.0,    0.0,  999.0,  999.0,  999.0,    0.0,  999.0,   -0.5,   -0.1,    0.3,    0.3,    0.3,    0.2,  999.0,    0.6,    0.1,    0.1,  999.0,  999.0,  999.0,  999.0,  999.0,  999.0,  999.0,  999.0,  999.0,  999.0,  999.0,  999.0,  999.0,  999.0,  999.0,  999.0
2012/03/22 04:00,  999.0,   -0.7,    0.4,    2.1,    1.7,    4.5,    5.1,    4.4,    4.5,    5.8,    7.3,    7.6,  999.0,    2.0,    1.6,    0.0,    0.1,    0.1,   -0.1,   -0.1,   -0.0,   -0.1,    0.2,    0.5,    0.2,  999.0,    0.0,    0.1,   -0.0,   -0.1,   -0.1,   -0.0,    0.2,  999.0,   -0.0,   -0.3,   -0.5,    0.2,    0.0,   -0.2,  999.0,   -0.6,    0.2,  999.0,   -0.0,    0.0,   -0.1,   -0.1,    0.1,  999.0,  999.0,   -0.1,  999.0,  999.0,    0.3,  999.0,  999.0,    0.2,  999.0,   -0.2,    0.4,   -0.0,  999.0,  999.0,  999.0,  999.0,  999.0,  999.0,  999.0,  999.0,  999.0,  999.0,  999.0,  999.0,  999.0,  999.0,  999.0,  999.0,  999.0,  999.0
2012/03/22 04:10,  999.0,    0.2,   -0.5,    1.4,    0.5,    1.4,    0.9,    0.9,    1.4,    3.7,    6.9,    6.2,    3.8,    1.3,    0.6,    0.5,    0.2,    0.2,    0.2,    0.1,   -0.0,    0.0,   -0.0,    0.1,   -0.2,   -0.1,    0.2,    0.2,    0.4,    0.1,    0.2,  999.0,    0.2,  999.0,    0.0,   -0.3,  999.0,   -0.0,  999.0,   -0.1,  999.0,  999.0,    0.0,    0.0,   -0.1,  999.0,  999.0,    0.0,   -0.1,  999.0,  999.0,  999.0,   -0.1,   -0.4,    0.1,    0.1,    0.2,   -0.1,    0.1,  999.0,  999.0,    0.2,    0.4,  999.0,  999.0,  999.0,  999.0,  999.0,  999.0,  999.0,  999.0,  999.0,  999.0,  999.0,  999.0,  999.0,  999.0,  999.0,  999.0,  999.0
2012/03/22 04:20,  999.0,   -0.4,    0.9,    0.9,    4.0,    4.3,    3.1,    1.6,    3.4,    4.3,  999.0,  999.0,    0.8,    0.8,    0.4,    0.1,   -0.0,   -0.1,   -0.1,    0.0,   -0.1,    0.1,   -0.1,   -0.3,   -0.1,   -0.0,    0.0,    0.0,    0.2,   -0.0,    0.1,   -0.1,   -0.0,   -0.2,    0.0,   -0.1,    0.2,    0.0,  999.0,    0.0,   -0.6,   -0.1,   -0.1,   -0.0,   -0.1,   -0.1,    0.0,   -0.1,  999.0,  999.0,  999.0,  999.0,  999.0,  999.0,    0.1,  999.0,  999.0,    0.1,   -0.0,  999.0,    0.0,  999.0,  999.0,   -0.1,  999.0,  999.0,  999.0,  999.0,  999.0,  999.0,  999.0,  999.0,  999.0,  999.0,  999.0,  999.0,  999.0,  999.0,  999.0,  999.0
2012/03/22 04:30,  999.0,    0.0,   -0.3,    1.4,    4.8,    2.8,    1.5,    1.9,    0.9,  999.0,  999.0,  999.0,    1.3,    1.2,    0.5,   -0.4,    0.0,   -0.0,    0.1,   -0.1,    0.1,   -0.1,   -0.1,   -0.3,   -0.1,   -0.0,    0.2,   -0.3,   -0.5,    0.1,    0.1,    0.1,    0.1,   -0.4,    0.2,   -0.0,   -0.4,   -0.3,   -0.2,   -0.6,   -0.9,  999.0,   -0.3,    0.3,   -0.2,   -0.1,   -0.0,    0.2,   -0.2,    0.4,    0.1,   -0.1,   -0.1,    0.1,   -0.1,    0.4,    0.0,    0.2,   -0.0,    0.1,    0.2,  999.0,   -0.2,   -0.1,   -0.8,  999.0,  999.0,  999.0,  999.0,  999.0,  999.0,  999.0,  999.0,  999.0,  999.0,  999.0,  999.0,  999.0,  999.0,  999.0
2012/03/22 04:40,  999.0,  999.0,   -0.7,    0.2,    1.4,    1.5,    2.2,    2.7,    1.7,    1.6,  999.0,  999.0,  999.0,    2.0,    1.0,   -0.1,   -0.1,    0.0,    0.1,   -0.0,    0.2,  999.0,  999.0,   -0.1,   -0.2,   -0.1,   -0.1,    0.0,   -0.0,   -0.1,   -0.0,    0.3,  999.0,   -0.3,  999.0,  999.0,  999.0,   -0.0,    0.2,    0.4,    0.2,  999.0,  999.0,   -0.0,    0.1,    0.1,   -0.0,  999.0,    0.3,   -0.1,  999.0,  999.0,  999.0,   -0.2,    0.1,    0.1,    0.0,   -0.2,    0.0,   -0.1,   -0.2,    0.2,   -0.0,   -0.6,  999.0,  999.0,  999.0,  999.0,  999.0,  999.0,  999.0,  999.0,  999.0,  999.0,  999.0,  999.0,  999.0,  999.0,  999.0,  999.0
2012/03/22 04:50,  999.0,    1.0,    0.6,    1.3,    1.3,    2.0,    2.0,    1.7,    1.7,    0.9,    3.4,  999.0,  999.0,    0.2,    0.3,    0.1,    0.1,    0.1,    0.0,    0.0,    0.0,    0.1,    0.1,    0.1,    0.1,    0.0,   -0.1,   -0.2,   -0.3,    0.1,    0.0,   -0.0,    0.1,   -0.2,    0.2,   -0.4,    0.1,   -0.1,   -0.2,   -0.3,  999.0,  999.0,   -0.3,  999.0,    0.1,   -0.2,   -0.2,   -0.1,    0.5,   -0.0,    0.2,  999.0,   -0.3,    0.4,    0.1,   -0.1,  999.0,    0.0,    0.1,    0.2,    0.4,  999.0,    0.1,    0.2,   -0.2,  999.0,  999.0,  999.0,  999.0,  999.0,  999.0,  999.0,  999.0,  999.0,  999.0,  999.0,  999.0,  999.0,  999.0,  999.0
2012/03/22 05:00,  999.0,    0.8,    0.9,    1.7,    2.7,    3.6,    2.1,    0.5,  999.0,  999.0,  999.0,  999.0,  999.0,    0.1,    0.2,   -0.5,    0.1,    0.1,    0.1,    0.1,    0.1,    0.2,    0.3,    0.0,    0.1,    0.2,    0.0,    0.0,   -0.1,    0.1,    0.2,   -0.3,   -0.0,  999.0,    0.1,    0.5,    0.2,    0.1,    0.1,   -0.1,  999.0,  999.0,   -0.1,  999.0,   -0.1,    0.2,   -0.2,   -0.0,  999.0,  999.0,  999.0,    0.1,  999.0,  999.0,    0.2,  999.0,  999.0,    0.1,  999.0,  999.0,  999.0,    0.0,    0.1,  999.0,   -0.2,  999.0,  999.0,  999.0,  999.0,  999.0,  999.0,  999.0,  999.0,  999.0,  999.0,  999.0,  999.0,  999.0,  999.0,  999.0
2012/03/22 05:10,  999.0,    0.1,    0.2,   -0.1,    0.9,    2.4,    2.1,    0.6,   -0.1,    0.8,    0.4,    1.0,    0.7,   -0.2,    0.2,    0.7,   -0.1,    0.0,    0.0,    0.1,    0.2,    0.1,    0.1,    0.2,    0.1,   -0.2,    0.0,    0.1,   -0.0,   -0.1,   -0.1,    0.0,  999.0,   -0.0,  999.0,   -0.0,   -0.0,  999.0,    0.2,    0.0,   -0.4,   -0.6,   -0.3,   -0.1,   -0.0,   -0.0,    0.0,    0.2,  999.0,  999.0,  999.0,  999.0,  999.0,  999.0,  999.0,  999.0,  999.0,  999.0,  999.0,  999.0,  999.0,    0.6,    0.5,    0.4,  999.0,  999.0,  999.0,  999.0,  999.0,  999.0,  999.0,  999.0,  999.0,  999.0,  999.0,  999.0,  999.0,  999.0,  999.0,  999.0
2012/03/22 05:20,  999.0,   -0.1,    0.5,    1.2,    1.0,    3.5,    1.0,    0.3,    0.0,   -0.2,    0.9,    1.3,    1.4,   -1.0,    0.1,   -0.1,    0.4,    0.1,    0.0,   -0.1,   -0.1,    0.0,    0.2,   -0.3,   -0.2,   -0.2,    0.0,   -0.2,   -0.0,    0.3,   -0.0,   -0.6,   -0.5,   -0.1,   -0.2,    0.1,    0.0,    0.2,    0.1,    0.1,   -0.1,  999.0,  999.0,  999.0,  999.0,    0.0,  999.0,  999.0,  999.0,   -0.2,  999.0,  999.0,   -0.2,  999.0,  999.0,    0.0,  999.0,  999.0,  999.0,    0.3,  999.0,  999.0,    0.0,  999.0,    0.3,  999.0,  999.0,  999.0,  999.0,  999.0,  999.0,  999.0,  999.0,  999.0,  999.0,  999.0,  999.0,  999.0,  999.0,  999.0
2012/03/22 05:30,  999.0,   -0.0,    1.3,    0.9,    4.3,    2.4,    2.3,    0.3,    0.4,    0.0,  999.0,  999.0,  999.0,  999.0,  999.0,    0.6,    0.1,    0.1,    0.0,    0.1,    0.2,    0.0,   -0.1,  999.0,   -0.1,   -0.2,   -0.1,   -0.0,   -0.2,    0.0,   -0.3,    0.1,    0.1,   -0.2,    0.0,    0.0,  999.0,   -0.0,    0.1,    0.1,    0.2,  999.0,  999.0,  999.0,    0.1,   -0.0,    0.1,   -0.2,  999.0,   -0.0,  999.0,  999.0,  999.0,   -0.2,   -0.1,    0.0,  999.0,  999.0,  999.0,  999.0,  999.0,  999.0,  999.0,  999.0,    0.2,  999.0,  999.0,  999.0,  999.0,  999.0,  999.0,  999.0,  999.0,  999.0,  999.0,  999.0,  999.0,  999.0,  999.0,  999.0
2012/03/22 05:40,  999.0,   -0.7,    0.2,    0.3,    3.8,    4.1,    1.2,    0.5,  999.0,    0.4,  999.0,    3.7,  999.0,    3.0,    0.5,   -0.2,   -0.2,   -0.0,    0.1,    0.0,   -0.1,   -0.1,   -0.4,   -0.0,    0.0,   -0.4,   -0.4,    0.3,    0.1,    0.2,    0.1,    0.4,    0.0,   -0.2,   -0.1,   -0.0,   -0.3,    0.1,   -0.2,    0.2,  999.0,  999.0,  999.0,    0.2,    0.0,    0.3,  999.0,   -0.0,  999.0,  999.0,  999.0,  999.0,   -0.2,   -0.0,  999.0,   -0.1,   -0.0,  999.0,    0.2,    0.1,  999.0,    0.0,  999.0,  999.0,  999.0,  999.0,  999.0,  999.0,  999.0,  999.0,  999.0,  999.0,  999.0,  999.0,  999.0,  999.0,  999.0,  999.0,  999.0,  999.0
2012/03/22 05:50,  999.0,   -0.2,  999.0,    2.3,    3.0,    3.3,    2.5,  999.0,  999.0,  999.0,  999.0,  999.0,  999.0,  999.0,    0.9,    0.5,    0.1,    0.0,   -0.0,   -0.0,    0.1,    0.2,  999.0,  999.0,    0.1,    0.2,  999.0,   -0.0,   -0.3,   -0.3,   -0.4,    0.1,   -0.3,   -0.2,    0.1,    0.0,    0.1,    0.2,    0.0,  999.0,   -0.5,  999.0,  999.0,    0.2,    0.4,  999.0,   -0.0,  999.0,  999.0,  999.0,  999.0,  999.0,  999.0,   -0.3,  999.0,   -0.0,   -0.1,   -0.0,    0.0,  999.0,    0.1,    0.7,  999.0,  999.0,    0.2,  999.0,  999.0,  999.0,  999.0,  999.0,  999.0,  999.0,  999.0,  999.0,  999.0,  999.0,  999.0,  999.0,  999.0,  999.0
2012/03/22 06:00,  999.0,   -0.0,    1.3,    1.5,    5.3,    5.0,    1.9,    0.4,    0.6,    0.1,    2.0,    4.4,  999.0,    2.9,    2.9,    1.7,    0.7,    0.3,   -0.1,   -0.0,   -0.1,   -0.0,    0.0,   -0.1,    0.1,   -0.5,    0.1,    0.1,    0.4,   -0.1,   -0.2,   -0.1,   -0.8,    0.1,    0.3,    0.0,   -0.0,   -0.0,    0.1,  999.0,   -0.4,  999.0,  999.0,   -0.1,   -0.2,    0.4,    0.2,    0.1,    0.2,  999.0,   -0.1,    0.0,    0.3,   -0.2,    0.4,   -0.0,  999.0,    0.1,    0.0,   -0.1,    0.1,    0.1,  999.0,    0.1,   -0.1,    0.1,   -0.3,  999.0,  999.0,  999.0,  999.0,  999.0,  999.0,  999.0,  999.0,  999.0,  999.0,  999.0,  999.0,  999.0
2012/03/22 06:10,  999.0,   -0.5,    1.9,    4.1,    3.2,    3.8,    4.5,  999.0,  999.0,  999.0,  999.0,  999.0,  999.0,  999.0,  999.0,  999.0,    4.5,    0.1,   -0.1,    0.1,    0.0,   -0.7,    0.0,   -0.2,   -0.0,   -0.3,   -0.0,    0.1,   -0.0,   -0.0,    0.3,    0.3,  999.0,   -0.1,   -0.1,   -0.1,   -0.1,   -0.2,   -0.5,  999.0,   -0.8,  999.0,   -0.1,   -0.1,    0.2,    0.3,  999.0,  999.0,    0.1,   -0.0,    0.0,    0.2,   -0.0,   -0.3,    0.1,   -0.0,   -0.1,   -0.3,   -0.2,   -0.1,   -0.2,   -0.3,   -0.3,   -0.8,    0.2,  999.0,   -0.5,  999.0,  999.0,  999.0,  999.0,  999.0,  999.0,  999.0,  999.0,  999.0,  999.0,  999.0,  999.0,  999.0
2012/03/22 06:20,  999.0,  999.0,  999.0,  999.0,  999.0,  999.0,  999.0,  999.0,   13.0,  999.0,  999.0,  999.0,  999.0,  999.0,  999.0,  999.0,  999.0,  999.0,  999.0,  999.0,  999.0,  999.0,  999.0,  999.0,  999.0,  999.0,  999.0,  999.0,  999.0,  999.0,  999.0,  999.0,  999.0,    0.2,  999.0,  999.0,  999.0,  999.0,  999.0,  999.0,   -0.5,  999.0,  999.0,  999.0,  999.0,  999.0,  999.0,  999.0,  999.0,  999.0,  999.0,  999.0,  999.0,  999.0,  999.0,  999.0,   -0.4,   -0.3,  999.0,  999.0,    0.1,   -0.2,  999.0,    0.2,  999.0,  999.0,   -0.5,  999.0,  999.0,  999.0,  999.0,  999.0,  999.0,  999.0,  999.0,  999.0,  999.0,  999.0,  999.0,  999.0
2012/03/22 06:30,  999.0,  999.0,    2.2,    3.5,  999.0,  999.0,  999.0,  999.0,  999.0,  999.0,   15.6,   17.4,  999.0,  999.0,  999.0,  999.0,  999.0,  999.0,  999.0,  999.0,    0.3,  999.0,   -0.3,   -0.1,  999.0,  999.0,  999.0,  999.0,  999.0,   -0.5,  999.0,  999.0,  999.0,  999.0,    0.0,    0.0,   -0.5,  999.0,  999.0,  999.0,  999.0,  999.0,  999.0,   -0.2,    0.1,  999.0,  999.0,  999.0,  999.0,  999.0,   -0.1,  999.0,   -0.1,   -0.2,   -0.0,   -0.2,   -0.2,   -0.3,   -0.1,   -0.5,  999.0,    0.3,    0.2,   -0.1,  999.0,   -0.2,  999.0,    0.1,  999.0,  999.0,  999.0,  999.0,  999.0,  999.0,  999.0,  999.0,  999.0,  999.0,  999.0,  999.0
2012/03/22 06:40,  999.0,  999.0,  999.0,  999.0,  999.0,  999.0,  999.0,  999.0,   14.4,   15.3,   16.6,   15.6,  999.0,  999.0,  999.0,  999.0,  999.0,  999.0,  999.0,  999.0,  999.0,  999.0,  999.0,  999.0,  999.0,  999.0,   -0.4,   -0.1,   -0.3,   -0.2,   -0.1,   -0.4,  999.0,   -0.4,  999.0,  999.0,    0.1,  999.0,  999.0,   -0.6,  999.0,  999.0,  999.0,  999.0,  999.0,  999.0,  999.0,  999.0,  999.0,  999.0,  999.0,  999.0,    0.0,  999.0,    0.1,   -0.1,  999.0,  999.0,  999.0,  999.0,    0.1,    0.1,    0.2,   -0.3,  999.0,  999.0,  999.0,  999.0,  999.0,  999.0,  999.0,  999.0,  999.0,  999.0,  999.0,  999.0,  999.0,  999.0,  999.0,  999.0
2012/03/22 06:50,  999.0,  999.0,  999.0,  999.0,  999.0,  999.0,  999.0,  999.0,  999.0,    9.6,   13.2,   14.6,   13.5,   13.5,    7.6,  999.0,    0.1,    0.1,    0.1,   -0.0,    0.0,   -0.1,  999.0,  999.0,   -0.2,   -0.1,    0.2,    0.1,   -0.0,   -0.1,    0.3,    0.0,   -0.1,    0.1,   -0.2,   -0.2,    0.0,  999.0,   -0.9,   -0.2,   -0.1,   -0.2,    0.1,    0.4,    0.3,    0.1,   -0.3,    0.3,    0.4,    0.2,  999.0,  999.0,  999.0,  999.0,   -0.0,    0.1,    0.0,  999.0,   -0.0,   -0.0,  999.0,    0.4,    0.1,  999.0,    0.2,   -0.1,  999.0,   -0.2,  999.0,  999.0,  999.0,  999.0,  999.0,  999.0,  999.0,  999.0,  999.0,  999.0,  999.0,  999.0
2012/03/22 07:00,  999.0,  999.0,  999.0,  999.0,  999.0,  999.0,  999.0,  999.0,  999.0,  999.0,   10.4,  999.0,  999.0,    6.9,    6.2,    0.5,    0.5,    0.2,   -0.1,    0.0,    0.0,    0.3,    0.2,   -0.0,   -0.0,   -0.0,    0.1,   -0.0,   -0.3,    0.1,   -0.1,   -0.1,   -0.1,    0.0,    0.2,  999.0,    0.1,    0.2,   -0.2,    0.1,   -0.1,    0.1,   -0.1,   -0.3,   -0.1,    0.1,   -0.0,    0.1,    0.1,   -0.3,   -0.2,  999.0,  999.0,   -0.2,    0.0,   -0.5,   -0.1,    0.2,    0.2,    0.0,   -0.2,    0.1,    0.1,   -0.1,   -0.2,  999.0,  999.0,   -0.0,    0.2,  999.0,  999.0,  999.0,  999.0,  999.0,  999.0,  999.0,  999.0,  999.0,  999.0,  999.0
2012/03/22 07:10,  999.0,    0.3,   -0.5,    0.1,    0.1,   -0.0,    2.6,  999.0,    2.6,    1.6,    1.8,    1.7,    1.3,    0.9,    0.8,    0.8,    0.4,    0.2,    0.1,   -0.1,   -0.1,    0.0,    0.1,    0.0,    0.1,    0.0,   -0.1,   -0.1,   -0.2,    0.1,   -0.0,   -0.2,   -0.1,    0.1,   -0.2,   -0.5,   -0.2,   -0.2,   -0.5,    0.1,   -0.2,   -0.2,    0.2,   -0.5,   -0.3,    0.2,   -0.1,    0.1,    0.0,  999.0,   -0.1,   -0.5,   -0.0,    0.1,   -0.2,   -0.3,   -0.2,   -0.0,   -0.0,    0.0,    0.2,   -0.1,   -0.1,    0.3,   -0.3,   -0.1,    0.2,    0.1,    0.1,  999.0,  999.0,  999.0,  999.0,   -0.2,  999.0,  999.0,  999.0,  999.0,  999.0,  999.0
2012/03/22 07:20,  999.0,    1.2,   -0.6,   -0.6,  999.0,  999.0,  999.0,  999.0,    0.8,  999.0,   -0.2,    1.2,    0.6,    1.9,    1.8,    1.8,    0.8,    0.2,   -0.1,   -0.1,    0.0,    0.1,    0.2,    0.0,    0.1,   -0.1,    0.1,   -0.1,   -0.1,   -0.1,   -0.2,   -0.3,   -0.2,   -0.4,   -0.3,  999.0,   -0.4,   -1.0,  999.0,   -0.3,   -0.1,    0.2,    0.2,    0.0,   -0.2,    0.1,   -0.2,   -0.4,   -0.2,  999.0,    0.0,    0.3,   -0.3,  999.0,   -0.2,   -0.3,    0.2,    0.2,   -0.1,   -0.1,    0.2,   -0.0,    0.1,  999.0,    0.2,    0.0,   -0.1,   -0.3,    0.1,  999.0,  999.0,  999.0,    0.1,  999.0,  999.0,  999.0,  999.0,  999.0,  999.0,  999.0
2012/03/22 07:30,  999.0,    0.2,    0.4,    0.3,  999.0,    1.6,  999.0,  999.0,  999.0,  999.0,  999.0,  999.0,    2.4,    5.2,  999.0,  999.0,    1.6,    0.9,    0.1,   -0.1,    0.3,    0.1,   -0.1,   -0.1,   -0.0,    0.1,    0.2,    0.0,   -0.1,   -0.1,    0.1,  999.0,   -0.1,  999.0,  999.0,   -0.4,   -0.2,  999.0,    0.0,   -0.2,    0.1,   -0.0,   -0.1,    0.0,    0.0,   -0.3,   -0.1,   -0.0,   -0.0,   -0.0,    0.1,   -0.0,  999.0,   -0.4,   -0.1,    0.4,    0.0,   -0.1,    0.1,    0.0,    0.2,    0.0,   -0.1,   -0.1,   -0.0,    0.3,   -0.1,   -0.3,   -0.3,  999.0,  999.0,    0.3,  999.0,  999.0,  999.0,  999.0,  999.0,  999.0,  999.0,  999.0
2012/03/22 07:40,  999.0,    0.7,  999.0,    0.1,  999.0,  999.0,  999.0,    3.2,    2.9,    3.6,    7.1,    4.9,  999.0,    7.9,  999.0,    3.8,  999.0,    0.5,    0.4,    0.2,    0.2,    0.1,    0.1,   -0.1,    0.1,   -0.2,    0.2,   -0.2,    0.1,   -0.2,  999.0,   -0.1,    0.0,    0.3,   -0.2,   -0.9,  999.0,  999.0,    0.1,    0.4,   -0.1,   -0.3,  999.0,   -0.1,   -0.4,   -0.1,   -0.1,   -0.1,   -0.3,  999.0,  999.0,    0.0,    0.2,    0.3,    0.1,   -0.3,    0.0,   -0.1,   -0.1,    0.1,   -0.1,    0.1,    0.1,   -0.1,   -0.1,   -0.1,   -0.1,    0.2,  999.0,  999.0,   -0.1,   -0.1,   -0.2,  999.0,  999.0,  999.0,  999.0,  999.0,  999.0,  999.0
2012/03/22 07:50,  999.0,   -0.1,    0.2,    0.3,    0.8,    0.8,    2.0,    1.7,    2.3,    2.0,    6.4,    7.6,    8.4,  999.0,    4.4,    2.3,    2.4,    0.5,    0.1,    0.0,   -0.2,   -0.1,   -0.3,   -0.0,   -0.5,    0.0,    0.1,  999.0,  999.0,   -1.2,  999.0,  999.0,   -0.3,  999.0,    0.3,  999.0,  999.0,    0.2,   -0.0,  999.0,    0.0,  999.0,    0.1,   -0.2,    0.0,   -0.2,   -0.1,  999.0,  999.0,  999.0,   -0.0,    0.1,  999.0,  999.0,   -0.3,   -0.2,    0.2,    0.3,    0.3,    0.2,   -0.0,    0.4,  999.0,    0.0,   -0.1,   -0.0,    0.1,  999.0,  999.0,  999.0,  999.0,  999.0,  999.0,  999.0,  999.0,  999.0,  999.0,  999.0,  999.0,  999.0
2012/03/22 08:00,  999.0,  999.0,  999.0,   -0.0,    0.7,    1.9,    1.9,    2.9,    3.0,    2.6,    6.4,  999.0,  999.0,  999.0,  999.0,  999.0,  999.0,  999.0,   -0.4,    0.0,    0.1,   -0.4,   -0.2,   -0.8,   -0.2,   -0.2,    0.2,    0.1,    0.1,    0.0,  999.0,   -0.2,   -0.0,   -0.3,    0.2,   -0.1,    0.4,    0.0,   -0.1,   -0.2,   -0.6,   -0.2,   -0.0,    0.1,    0.4,    0.4,    0.1,  999.0,    0.0,   -0.0,  999.0,    0.2,    0.0,   -0.0,  999.0,   -0.3,   -0.4,   -0.1,   -0.5,    0.2,   -0.2,   -0.0,   -0.4,  999.0,   -0.1,  999.0,  999.0,  999.0,  999.0,  999.0,  999.0,  999.0,  999.0,  999.0,  999.0,  999.0,  999.0,  999.0,  999.0,  999.0
2012/03/22 08:10,  999.0,    0.2,  999.0,    0.2,  999.0,    2.3,    0.9,    1.6,    1.3,    1.0,    0.8,    0.7,    0.8,  999.0,    0.2,    0.4,    0.1,    0.0,   -0.1,   -0.1,   -0.0,    0.0,    0.2,    0.4,    0.0,   -0.1,    0.1,   -0.4,   -0.0,   -0.1,    0.1,   -0.1,    0.4,   -0.1,   -0.3,    0.0,   -0.1,   -0.3,   -0.3,   -0.3,   -0.3,   -0.3,    0.5,    0.0,   -0.0,    0.2,    0.1,   -0.1,   -0.1,    0.0,    0.2,  999.0,    0.1,   -0.3,   -0.2,   -0.3,  999.0,  999.0,   -0.0,    0.1,    0.0,    0.0,   -0.1,   -0.2,   -0.1,   -0.5,  999.0,    0.2,    0.3,  999.0,  999.0,  999.0,  999.0,  999.0,  999.0,  999.0,  999.0,  999.0,  999.0,  999.0
2012/03/22 08:20,  999.0,  999.0,   -0.5,   -0.4,    0.3,    0.2,    0.3,    0.4,    0.0,    0.5,    1.0,    0.6,    0.8,    0.2,   -0.0,   -0.2,    0.1,   -0.1,   -0.2,   -0.1,   -0.1,    0.1,    0.1,   -0.0,   -0.1,   -0.1,   -0.2,   -0.1,   -0.3,   -0.2,   -0.4,   -0.2,    0.2,    0.3,   -0.2,   -0.1,  999.0,   -0.2,    0.1,    0.1,   -0.2,    0.1,    0.0,   -0.2,   -0.1,   -0.0,    0.2,    0.0,    0.1,   -0.3,   -0.3,   -0.2,    0.0,   -0.0,    0.4,    0.1,  999.0,   -0.2,   -0.1,   -0.1,    0.1,   -0.3,  999.0,   -0.3,    0.1,    0.0,    0.1,  999.0,   -0.0,   -0.1,  999.0,  999.0,    0.1,  999.0,  999.0,  999.0,  999.0,  999.0,  999.0,  999.0
2012/03/22 08:30,  999.0,  999.0,   -0.2,   -0.1,   -0.8,   -0.5,    0.2,    0.7,    0.2,    0.3,    1.0,    0.7,    0.4,    0.3,    0.2,    0.1,    0.2,   -0.1,   -0.0,   -0.1,    0.0,    0.1,   -0.0,   -0.1,   -0.1,    0.2,   -0.2,   -0.2,   -0.1,    0.1,    0.1,   -0.1,    0.0,    0.0,   -0.0,    0.3,    0.2,    0.1,    0.0,    0.0,   -0.3,   -0.3,    0.1,   -0.0,    0.0,    0.0,   -0.3,   -0.1,    0.0,    0.1,    0.1,    0.0,   -0.3,   -0.0,   -0.0,   -0.0,   -0.0,    0.0,   -0.1,    0.1,    0.1,    0.1,    0.1,   -0.4,   -0.2,    0.0,    0.2,    0.0,    0.0,  999.0,  999.0,  999.0,  999.0,  999.0,  999.0,  999.0,  999.0,  999.0,  999.0,  999.0
2012/03/22 08:40,  999.0,  999.0,    0.1,    0.4,   -0.4,   -0.3,   -0.4,    0.0,    0.1,    0.2,    0.3,    0.3,    0.1,    0.2,    0.2,    0.3,    0.2,    0.3,   -0.0,    0.0,    0.1,    0.0,    0.0,    0.1,    0.2,    0.0,    0.1,    0.1,    0.1,    0.0,    0.1,   -0.1,    0.0,    0.0,   -0.0,   -0.1,    0.1,    0.2,   -0.0,    0.0,    0.0,    0.0,    0.0,    0.0,    0.0,    0.0,    0.0,    0.1,    0.2,   -0.0,   -0.1,   -0.0,    0.1,   -0.1,    0.0,    0.1,   -0.0,    0.0,    0.2,   -0.0,    0.1,    0.3,    0.0,    0.0,    0.1,    0.2,   -0.0,   -0.2,    0.2,    0.1,    0.1,    0.4,    0.3,   -0.0,    0.6,  999.0,  999.0,  999.0,  999.0,  999.0
2012/03/22 08:50,  999.0,  999.0,  999.0,    0.1,   -0.3,    0.0,   -0.2,    0.1,    0.3,    0.2,    0.1,    0.3,    0.2,    0.2,    0.1,    0.1,    0.1,    0.1,    0.1,    0.1,    0.1,   -0.0,    0.2,    0.2,    0.3,    0.0,   -0.0,   -0.2,    0.1,    0.1,    0.1,   -0.0,    0.1,   -0.1,    0.1,   -0.1,   -0.1,    0.2,    0.0,    0.0,    0.0,    0.1,   -0.0,   -0.0,   -0.0,   -0.0,    0.1,   -0.0,    0.1,    0.1,   -0.1,   -0.2,   -0.1,   -0.1,   -0.1,   -0.0,    0.0,    0.0,   -0.1,   -0.1,    0.0,    0.0,    0.2,   -0.1,    0.0,   -0.1,   -0.2,    0.1,   -0.0,    0.1,   -0.2,   -0.2,   -0.2,    0.2,  999.0,  999.0,  999.0,  999.0,  999.0,  999.0
2012/03/22 09:00,  999.0,  999.0,    0.0,    0.0,   -0.1,    0.1,    0.1,   -0.2,    0.2,    0.0,    0.1,    0.1,    0.1,    0.1,    0.1,    0.0,    0.2,    0.0,   -0.1,    0.0,   -0.0,   -0.0,   -0.2,   -0.1,    0.0,    0.2,    0.0,   -0.0,   -0.1,   -0.1,   -0.0,   -0.1,    0.0,   -0.2,   -0.0,   -0.1,    0.0,    0.1,    0.1,    0.0,    0.0,   -0.2,   -0.1,   -0.1,   -0.2,   -0.1,   -0.1,   -0.1,   -0.2,   -0.2,   -0.1,   -0.1,   -0.0,   -0.0,    0.0,   -0.1,   -0.0,   -0.0,   -0.0,   -0.0,    0.0,   -0.0,    0.0,   -0.0,   -0.1,   -0.2,   -0.1,    0.2,   -0.0,    0.2,   -0.0,    0.0,   -0.0,    0.0,    0.0,  999.0,  999.0,  999.0,  999.0,  999.0
2012/03/22 09:10,  999.0,  999.0,    0.0,   -0.1,   -0.3,   -0.0,   -0.0,    0.0,   -0.0,    0.0,    0.2,    0.2,    0.1,    0.3,    0.2,   -0.1,    0.0,   -0.1,   -0.0,   -0.0,   -0.1,   -0.1,    0.1,    0.1,   -0.1,   -0.1,   -0.1,    0.1,    0.1,   -0.0,   -0.0,    0.0,   -0.0,   -0.1,   -0.2,   -0.1,    0.0,    0.3,    0.0,   -0.0,    0.0,   -0.1,   -0.1,    0.2,   -0.1,   -0.1,    0.0,   -0.0,    0.1,    0.1,    0.1,    0.0,   -0.0,   -0.1,   -0.1,    0.0,    0.1,   -0.1,   -0.0,    0.0,   -0.0,   -0.0,   -0.1,   -0.0,   -0.0,   -0.0,   -0.1,   -0.0,   -0.1,    0.1,    0.1,    0.4,    0.1,    0.1,  999.0,  999.0,  999.0,  999.0,  999.0,  999.0
2012/03/22 09:20,  999.0,  999.0,    0.1,    0.1,    0.0,    0.2,    0.0,  999.0,   -0.0,    0.0,    0.1,    0.1,    0.2,    0.0,   -0.1,   -0.0,    0.0,   -0.1,   -0.1,   -0.2,   -0.1,   -0.3,   -0.5,   -0.4,   -0.3,   -0.4,   -0.5,   -0.6,   -0.2,   -0.2,    0.0,    0.2,    0.2,   -0.0,    0.2,   -0.1,    0.1,   -0.0,   -0.1,   -0.1,    0.0,   -0.1,   -0.1,   -0.1,   -0.1,   -0.0,   -0.0,    0.2,    0.1,   -0.0,    0.1,   -0.0,   -0.0,    0.0,    0.1,    0.0,    0.1,   -0.0,    0.1,   -0.1,   -0.1,    0.0,    0.1,   -0.0,   -0.0,   -0.2,    0.1,   -0.0,    0.0,    0.0,  999.0,    0.3,    0.1,    0.1,   -0.2,  999.0,  999.0,  999.0,  999.0,  999.0
2012/03/22 09:30,  999.0,  999.0,    0.0,    0.2,    0.2,    0.0,    0.2,  999.0,  999.0,    0.1,    0.1,    0.3,    0.2,    0.2,    0.1,    0.1,    0.0,    0.1,    0.0,   -0.0,   -0.1,   -0.1,   -0.3,   -0.2,   -0.1,   -0.1,    0.1,   -0.1,   -0.2,   -0.2,    0.1,   -0.2,   -0.0,    0.1,    0.0,    0.3,    0.2,    0.2,   -0.0,    0.2,   -0.4,   -0.2,    0.0,    0.0,    0.1,   -0.1,  999.0,    0.1,   -0.2,   -0.1,   -0.1,   -0.1,   -0.0,    0.0,    0.2,    0.0,   -0.0,    0.0,    0.0,    0.1,   -0.0,   -0.1,   -0.1,    0.1,    0.2,   -0.0,    0.1,    0.0,    0.1,   -0.0,  999.0,   -0.2,    0.0,   -0.1,    0.1,  999.0,  999.0,  999.0,  999.0,  999.0
2012/03/22 09:40,  999.0,  999.0,    0.2,    0.0,    0.1,   -0.0,    0.1,    0.1,    0.2,    0.3,    0.4,    0.3,    0.2,    0.0,   -0.2,   -0.4,   -0.5,   -0.4,   -0.2,    0.1,   -0.1,   -0.1,   -0.2,   -0.3,   -0.4,   -0.2,   -0.6,   -0.6,   -0.3,   -0.4,   -0.2,    0.1,    0.0,   -0.1,   -0.1,   -0.2,   -0.3,   -0.0,    0.1,    0.1,   -0.1,    0.1,    0.1,   -0.1,    0.2,   -0.0,    0.1,   -0.0,   -0.3,   -0.2,    0.0,   -0.0,   -0.1,    0.1,    0.1,    0.0,   -0.0,    0.1,    0.0,   -0.0,   -0.2,   -0.0,   -0.0,   -0.2,    0.0,   -0.1,   -0.1,   -0.1,   -0.0,    0.1,    0.0,   -0.0,   -0.0,   -0.0,   -0.2,  999.0,  999.0,  999.0,  999.0,  999.0
2012/03/22 09:50,  999.0,   -0.1,    0.1,    0.0,   -0.0,    0.0,   -0.0,    0.1,   -0.1,   -0.0,    0.0,   -0.1,    0.0,    0.2,   -0.0,   -0.0,   -0.0,   -0.1,   -0.2,    0.1,   -0.1,   -0.1,   -0.5,   -1.2,   -0.9,   -0.7,   -1.2,   -1.3,   -0.8,   -1.7,   -0.8,   -0.1,   -0.3,   -0.1,    0.0,   -0.2,    0.0,  999.0,    0.1,   -0.1,   -0.2,   -0.1,    0.0,   -0.1,    0.0,   -0.1,    0.0,   -0.1,   -0.1,    0.0,   -0.1,   -0.1,    0.0,    0.0,    0.0,   -0.0,    0.1,   -0.0,    0.1,   -0.0,   -0.1,   -0.0,    0.0,   -0.0,    0.1,    0.1,   -0.0,   -0.1,    0.0,   -0.1,   -0.0,   -0.2,  999.0,   -0.1,  999.0,  999.0,  999.0,  999.0,  999.0,  999.0
2012/03/22 10:00,  999.0,   -0.2,  999.0,   -0.2,   -0.1,    0.1,   -0.1,   -0.0,   -0.0,    0.0,    0.1,    0.0,   -0.0,   -0.1,   -0.1,    4.5,   -0.3,   -0.3,   10.1,    9.9,    9.8,    9.6,  999.0,  999.0,  999.0,    8.6,    8.8,   -0.6,   -0.6,   -0.3,    0.2,   -0.1,   -0.1,    0.1,   -0.0,   -0.1,  999.0,   -0.0,    0.1,    0.2,    0.0,    0.1,    0.1,   -0.1,    0.1,   -0.0,   -0.2,    0.0,   -0.0,   -0.1,   -0.1,    0.0,   -0.1,    0.1,    0.1,    0.0,   -0.1,   -0.3,    0.1,   -0.2,    0.0,   -0.1,    0.1,    0.1,  999.0,   -0.1,   -0.1,    0.0,    0.2,  999.0,   -0.1,   -0.1,   -0.0,  999.0,  999.0,  999.0,  999.0,  999.0,  999.0,  999.0
2012/03/22 10:10,  999.0,    0.0,    0.4,    0.3,   -0.0,   -0.0,   -0.0,    0.0,   -0.0,    0.0,   -0.1,   -0.0,    0.1,    0.1,    0.1,    5.8,    2.4,    2.5,    0.1,  999.0,    3.7,   -0.5,   -0.6,    4.5,   -0.4,   -0.0,   -0.5,   -0.5,   -0.4,    0.0,    0.1,    0.1,    0.2,    0.1,   -0.1,    0.0,   -0.1,    0.1,   -0.0,   -0.3,   -0.1,   -0.1,    0.1,    0.2,   -0.1,    0.0,    0.1,    0.1,    0.0,    0.1,   -0.0,   -0.1,    0.1,    0.1,    0.1,    0.0,   -0.0,    0.1,    0.1,    0.0,   -0.0,    0.1,    0.0,   -0.1,    0.1,    0.1,    0.0,    0.0,   -0.1,   -0.1,   -0.3,    0.1,  999.0,  999.0,    0.3,  999.0,  999.0,  999.0,  999.0,  999.0
2012/03/22 10:20,  999.0,    0.2,   -0.1,   -0.1,    0.0,   -0.1,   -0.2,   -0.1,    0.2,    0.1,    0.0,    0.2,    0.1,    0.2,    0.2,   -0.0,    0.3,    0.6,   -0.3,    0.2,   -0.1,   -0.3,    0.3,   -0.2,   -0.2,   -0.2,   -0.3,   -0.5,   -0.7,   -0.2,    0.2,   -0.0,    0.0,   -0.1,   -0.1,   -0.2,   -0.2,   -0.1,    0.1,   -0.0,   -0.0,    0.0,    0.1,  999.0,    0.0,   -0.0,    0.0,    0.0,    0.0,    0.1,    0.1,   -0.1,   -0.1,    0.0,    0.1,   -0.1,   -0.1,   -0.0,    0.0,   -0.1,    0.1,   -0.0,    0.1,   -0.1,   -0.0,    0.1,    0.1,   -0.0,   -0.1,    0.0,    0.2,    0.0,    0.0,   -0.0,  999.0,  999.0,  999.0,  999.0,  999.0,  999.0
2012/03/22 10:30,  999.0,   -0.5,   -0.3,   -0.1,   -0.3,   -0.2,    0.0,   -0.2,   -0.3,    0.3,    0.5,    0.2,    1.9,   -0.7,    1.1,  999.0,  999.0,  999.0,  999.0,  999.0,  999.0,  999.0,  999.0,    0.1,    0.2,    0.2,    0.3,    0.1,    0.2,    0.0,   -0.1,   -0.2,   -0.1,    0.2,    0.2,    0.1,    0.1,   -0.1,    0.0,    0.1,   -0.1,   -0.1,   -0.1,   -0.0,   -0.0,   -0.0,    0.1,    0.1,    0.1,    0.1,    0.0,    0.0,    0.1,   -0.0,    0.0,    0.0,   -0.1,    0.0,   -0.1,    0.0,    0.1,    0.0,    0.1,    0.1,    0.1,   -0.1,   -0.1,   -0.0,    0.1,  999.0,    0.1,   -0.4,    0.0,    0.0,  999.0,  999.0,  999.0,  999.0,  999.0,  999.0
2012/03/22 10:40,  999.0,    0.6,    0.4,    0.1,   -0.0,    0.0,    0.0,    0.3,    0.3,    0.2,  999.0,  999.0,  999.0,  999.0,  999.0,  999.0,  999.0,  999.0,  999.0,  999.0,  999.0,    1.0,    1.1,    0.9,   -0.0,    0.0,    0.1,   -0.1,   -0.0,   -0.0,    0.2,    0.1,    0.2,    0.1,   -0.0,    0.1,    0.0,   -0.1,   -0.3,   -0.1,   -0.1,   -0.0,   -0.1,    0.0,   -0.0,   -0.0,    0.0,   -0.1,   -0.1,   -0.1,   -0.1,   -0.1,    0.2,    0.0,   -0.0,   -0.1,   -0.0,   -0.0,   -0.0,   -0.2,   -0.1,    0.0,   -0.0,   -0.0,  999.0,   -0.1,   -0.1,   -0.1,    0.1,   -0.0,    0.2,   -0.1,  999.0,  999.0,  999.0,  999.0,  999.0,  999.0,  999.0,  999.0
2012/03/22 10:50,  999.0,   -0.1,   -0.2,   -0.5,   -0.3,    0.1,    0.1,    0.1,    0.1,    0.6,    1.0,    0.7,    0.3,    0.4,    0.1,    1.1,    0.6,    0.3,    0.3,    0.4,    0.1,   -0.0,    0.2,    0.0,    0.0,    0.2,   -0.1,   -0.0,    0.0,    0.1,   -0.0,   -0.0,   -0.0,    0.2,    0.0,   -0.0,   -0.0,    0.1,   -0.0,    0.1,   -0.0,    0.0,   -0.0,   -0.0,   -0.0,   -0.1,    0.0,   -0.1,   -0.1,    0.1,    0.1,    0.1,    0.0,    0.0,    0.0,    0.1,   -0.0,   -0.0,    0.0,    0.0,    0.1,    0.0,    0.1,    0.0,   -0.1,   -0.0,   -0.0,   -0.0,    0.0,   -0.2,   -0.2,    0.1,   -0.0,  999.0,  999.0,  999.0,  999.0,  999.0,  999.0,  999.0
2012/03/22 11:00,  999.0,    0.1,   -0.1,    0.0,  999.0,   -0.1,    0.1,    0.0,    0.1,   -0.0,    0.1,    0.1,    0.1,    0.0,    0.0,    0.0,    0.0,   -0.1,    0.0,    0.1,   -0.1,   -0.0,    0.0,    0.1,    0.0,   -0.1,   -0.1,   -0.0,    0.1,    0.2,   -0.0,   -0.2,   -0.0,    0.1,    0.0,    0.0,   -0.0,   -0.1,   -0.1,   -0.0,   -0.0,   -0.1,    0.0,    0.0,    0.0,   -0.0,   -0.0,   -0.0,   -0.0,   -0.0,   -0.1,    0.0,    0.0,    0.0,    0.1,    0.0,   -0.1,   -0.0,   -0.0,   -0.0,    0.0,    0.0,   -0.0,    0.1,    0.0,    0.0,    0.0,   -0.1,    0.2,    0.4,  999.0,    0.1,    0.0,  999.0,   -0.2,  999.0,  999.0,  999.0,  999.0,  999.0
2012/03/22 11:10,  999.0,  999.0,    0.1,    0.1,    0.1,    0.1,    0.1,   -0.0,    0.0,    0.1,   -0.1,   -0.0,    0.0,    0.0,   -0.1,    0.1,   -0.1,    0.2,    0.1,    0.1,  999.0,    0.0,   -0.0,    0.1,   -0.0,   -0.0,   -0.1,    0.1,    0.0,   -0.0,    0.0,    0.1,   -0.0,   -0.0,    0.1,    0.0,   -0.0,    0.0,    0.1,    0.2,   -0.1,   -0.1,   -0.0,    0.1,    0.0,    0.0,    0.1,    0.0,   -0.0,   -0.0,    0.0,    0.0,    0.0,   -0.0,   -0.0,   -0.0,   -0.0,   -0.1,    0.1,   -0.0,   -0.1,    0.0,    0.0,   -0.0,    0.0,   -0.0,   -0.0,    0.0,   -0.0,   -0.1,    0.3,  999.0,   -0.2,   -0.0,    0.3,  999.0,  999.0,  999.0,  999.0,  999.0
2012/03/22 11:20,  999.0,  999.0,    0.2,    0.1,    0.1,  999.0,   -0.0,   -0.1,    0.0,   -0.1,   -0.1,   -0.1,   -0.1,    0.2,    0.1,    0.3,    0.3,    0.1,    0.1,    0.2,    0.2,   -0.1,   -0.1,   -0.1,   -0.1,    0.2,    0.2,    0.1,    0.0,    0.1,   -0.0,   -0.0,   -0.1,   -0.0,    0.1,   -0.1,   -0.1,   -0.0,   -0.0,    0.1,    0.0,    0.0,   -0.0,   -0.0,   -0.1,   -0.0,   -0.0,    0.0,    0.1,    0.0,    0.0,    0.0,   -0.1,    0.1,   -0.0,    0.1,   -0.1,   -0.1,   -0.1,   -0.1,   -0.1,   -0.1,   -0.1,   -0.0,   -0.0,   -0.1,   -0.0,   -0.1,   -0.1,   -0.0,   -0.0,    0.0,   -0.1,    0.0,  999.0,  999.0,  999.0,  999.0,  999.0,  999.0
2012/03/22 11:30,  999.0,  999.0,   -0.1,   -0.0,   -0.0,   -0.1,    0.1,    0.1,   -0.0,   -0.1,   -0.0,   -0.0,    0.0,    0.0,   -0.0,    0.0,    0.1,   -0.0,   -0.0,   -0.0,  999.0,    0.0,    0.1,   -0.0,   -0.0,   -0.1,   -0.0,    0.0,    0.1,    0.1,   -0.1,   -0.0,   -0.0,   -0.1,   -0.0,   -0.0,   -0.1,    0.0,    0.1,    0.1,    0.0,    0.0,    0.1,    0.1,    0.0,    0.0,   -0.0,   -0.0,    0.0,    0.0,    0.2,   -0.1,   -0.0,    0.1,    0.1,    0.1,    0.0,    0.0,   -0.0,  999.0,    0.0,   -0.0,   -0.0,    0.1,    0.0,   -0.1,   -0.0,    0.0,    0.0,   -0.2,    0.2,   -0.0,    0.0,    0.1,    0.2,  999.0,  999.0,  999.0,  999.0,  999.0
2012/03/22 11:40,  999.0,  999.0,    0.1,    0.0,   -0.0,    0.1,   -0.2,   -0.1,   -0.0,    0.0,   -0.1,   -0.1,    0.1,    0.2,    0.1,    0.1,    0.1,   -0.2,    0.1,    0.1,    0.2,   -0.0,    0.1,    0.4,    0.5,    0.2,    0.0,    0.1,    0.0,    0.2,    0.0,   -0.1,   -0.0,    0.1,    0.0,    0.1,   -0.2,    0.0,    0.2,    0.1,   -0.0,   -0.0,    0.2,    0.2,   -0.0,   -0.0,   -0.0,    0.0,   -0.0,   -0.1,    0.0,   -0.0,    0.1,   -0.0,   -0.1,   -0.1,   -0.2,    0.1,    0.0,   -0.0,    0.0,    0.0,   -0.0,    0.0,   -0.0,    0.0,    0.0,    0.0,    0.1,   -0.1,   -0.3,    0.2,    0.1,   -0.1,  999.0,  999.0,  999.0,  999.0,  999.0,  999.0
2012/03/22 11:50,  999.0,   -0.2,   -0.1,   -0.0,   -0.0,    0.0,   -0.2,   -0.1,    0.1,   -0.1,    0.1,   -0.2,   -0.1,   -0.1,   -0.0,   -0.1,    0.1,    0.0,    0.0,    0.1,    0.1,   -0.0,    0.1,    0.1,    0.1,    0.2,   -0.1,    0.1,   -0.1,   -0.1,   -0.1,    0.0,    0.2,   -0.0,   -0.0,    0.2,    0.0,   -0.1,   -0.1,   -0.1,   -0.2,   -0.1,    0.1,   -0.0,   -0.1,    0.2,   -0.0,   -0.0,    0.0,   -0.1,    0.0,   -0.0,    0.0,    0.1,    0.1,    0.0,    0.0,    0.0,    0.0,   -0.0,    0.0,    0.1,   -0.0,   -0.1,   -0.1,   -0.1,   -0.0,   -0.0,    0.1,   -0.1,    0.3,   -0.1,   -0.2,    0.1,  999.0,  999.0,  999.0,  999.0,  999.0,  999.0
2012/03/22 12:00,  999.0,  999.0,   -0.0,   -0.0,   -0.1,   -0.2,    0.0,   -0.1,   -0.1,    0.0,    0.1,    0.1,   -0.1,   -0.0,   -0.0,    0.1,   -0.1,  999.0,    0.0,    0.1,    0.1,   -0.0,    0.1,   -0.0,    0.1,    0.0,   -0.1,   -0.1,   -0.1,    0.0,   -0.0,   -0.0,   -0.1,   -0.0,    0.1,   -0.0,    0.0,   -0.1,   -0.0,   -0.0,   -0.1,   -0.2,   -0.1,   -0.0,   -0.1,   -0.1,   -0.1,    0.1,    0.1,    0.2,   -0.0,   -0.0,    0.1,    0.0,    0.1,   -0.0,   -0.1,   -0.0,   -0.0,   -0.0,    0.0,   -0.0,    0.0,   -0.1,   -0.0,   -0.0,    0.0,   -0.0,   -0.0,   -0.1,    0.1,   -0.0,   -0.1,  999.0,    0.0,  999.0,  999.0,  999.0,  999.0,  999.0
2012/03/22 12:10,  999.0,  999.0,   -0.1,   -0.1,   -0.1,   -0.1,   -0.3,  999.0,   -0.1,   -0.0,   -0.0,   -0.0,   -0.1,   -0.0,   -0.0,   -0.0,   -0.0,    0.0,    0.0,  999.0,    0.1,    0.0,    0.1,   -0.0,    0.1,   -0.0,   -0.1,    0.0,    0.0,   -0.0,    0.1,    0.1,    0.1,    0.1,   -0.1,    0.1,    0.2,   -0.1,    0.0,    0.1,   -0.1,   -0.0,    0.2,    0.2,    0.1,   -0.2,   -0.2,   -0.0,    0.1,   -0.0,    0.0,   -0.0,    0.0,   -0.1,   -0.1,    0.0,    0.1,    0.1,   -0.0,    0.1,   -0.1,   -0.0,   -0.1,    0.1,    0.0,   -0.0,    0.1,    0.1,   -0.0,   -0.0,   -0.2,   -0.2,    0.0,    0.0,  999.0,   -0.2,  999.0,  999.0,  999.0,  999.0
2012/03/22 12:20,  999.0,  999.0,    0.1,    0.1,   -0.1,    0.1,    0.1,    0.1,    0.1,   -0.0,    0.1,   -0.1,    0.1,    0.1,    0.0,   -0.1,   -0.2,  999.0,    0.1,    0.2,    0.3,    0.3,    0.3,    0.1,    0.0,   -0.1,    0.1,   -0.1,   -0.1,    0.0,    0.0,   -0.0,   -0.0,   -0.1,   -0.2,   -0.1,    0.0,    0.1,    0.1,    0.0,   -0.2,   -0.1,    0.1,   -0.0,   -0.0,    0.1,    0.0,   -0.0,   -0.1,   -0.1,    0.1,    0.1,   -0.0,   -0.0,   -0.1,    0.0,   -0.1,   -0.1,    0.0,   -0.1,    0.1,    0.0,   -0.2,   -0.0,   -0.2,    0.0,    0.1,   -0.0,   -0.0,    0.1,    0.1,    0.0,   -0.1,   -0.0,   -0.1,   -0.4,  999.0,  999.0,  999.0,  999.0
2012/03/22 12:30,  999.0,  999.0,    0.1,    0.0,    0.1,    0.0,    0.0,   -0.0,   -0.1,   -0.1,   -0.2,   -0.2,   -0.0,   -0.0,  999.0,   -0.1,   -0.1,   -0.0,    0.0,    0.1,   -0.1,    0.1,    0.1,   -0.0,   -0.0,    0.1,    0.0,   -0.1,    0.0,   -0.0,    0.1,    0.0,    0.1,    0.0,   -0.0,    0.3,    0.2,    0.1,    0.0,   -0.1,   -0.1,    0.0,   -0.0,   -0.0,    0.1,   -0.0,   -0.1,    0.1,    0.0,    0.1,   -0.1,   -0.0,    0.0,    0.1,    0.1,   -0.0,   -0.1,    0.1,   -0.1,   -0.1,   -0.0,   -0.0,    0.0,    0.0,   -0.0,   -0.1,   -0.1,   -0.1,   -0.1,    0.0,   -0.0,    0.1,    0.0,   -0.4,   -0.2,  999.0,  999.0,  999.0,  999.0,    0.1
2012/03/22 12:40,  999.0,   -0.1,    0.2,   -0.0,  999.0,  999.0,  999.0,  999.0,  999.0,   -0.0,    4.6,    4.4,    4.3,   -0.3,    3.6,    0.1,    3.2,    3.1,    0.6,    0.3,    0.3,    0.1,    0.1,    0.2,    0.1,    0.1,    0.0,   -0.0,    0.1,    0.0,    0.1,    0.1,   -0.1,   -0.1,    0.4,    0.8,    0.4,    0.1,    0.2,    0.0,   -0.2,   -0.1,    0.0,   -0.0,   -0.2,   -0.0,   -0.1,    0.0,   -0.0,   -0.1,   -0.0,    0.1,   -0.0,   -0.1,   -0.1,   -0.1,   -0.0,    0.0,   -0.0,    0.1,   -0.0,    0.0,    0.0,    0.1,    0.0,   -0.0,   -0.1,    0.1,   -0.0,    0.1,  999.0,    0.1,    0.3,  999.0,    0.1,  999.0,  999.0,  999.0,  999.0,  999.0
2012/03/22 12:50,  999.0,  999.0,    0.1,   -0.1,   -0.1,   -0.1,   -0.1,   -0.0,   -0.0,   -0.0,    2.3,    2.5,    1.9,    0.1,    0.2,    0.1,   -0.0,    0.0,    0.0,   -0.1,   -0.0,    0.0,   -0.0,    0.0,   -0.0,    0.1,    0.1,   -0.0,    0.2,    0.0,    0.0,    0.1,   -0.0,   -0.0,    0.3,    0.6,    0.1,   -0.0,    0.0,    0.0,   -0.1,    0.0,    0.0,    0.1,    0.0,    0.0,    0.0,   -0.0,    0.0,   -0.0,   -0.1,   -0.1,    0.1,    0.1,   -0.1,    0.0,   -0.1,    0.1,    0.0,   -0.1,    0.0,   -0.0,    0.0,    0.1,   -0.1,   -0.0,    0.0,   -0.0,    0.0,    0.1,    0.1,    0.1,   -0.1,   -0.2,   -0.1,  999.0,  999.0,  999.0,  999.0,  999.0
2012/03/22 13:00,  999.0,  999.0,    0.0,    0.0,    0.0,   -0.0,    0.0,   -0.1,   -0.0,    2.4,    1.5,    3.5,    2.1,    3.4,    5.1,   -0.1,   -0.0,    0.1,   -0.1,    0.2,    0.1,   -0.1,    0.0,   -0.1,   -0.1,    0.0,   -0.1,   -0.0,   -0.1,   -0.1,   -0.0,    0.0,    0.0,    0.2,    0.5,    0.4,    0.0,    0.1,   -0.0,    0.0,    0.1,   -0.0,    0.0,    0.1,    0.1,    0.1,    0.0,   -0.0,    0.1,   -0.1,   -0.0,    0.1,    0.0,   -0.0,   -0.0,    0.1,    0.0,   -0.0,   -0.1,   -0.1,    0.2,    0.0,    0.0,    0.0,   -0.0,   -0.0,   -0.0,   -0.1,    0.1,    0.1,    0.1,   -0.0,  999.0,    0.4,    0.1,   -0.1,  999.0,  999.0,  999.0,  999.0
2012/03/22 13:10,  999.0,   -0.0,   -0.0,   -0.1,    0.0,    0.0,    0.0,    0.1,    0.0,    0.1,    0.3,    0.2,    0.1,   -0.0,   -0.1,   -0.0,    0.2,    0.0,    1.9,    1.8,    0.0,   -0.0,   -0.1,    0.0,   -0.0,   -0.1,    0.1,    0.1,    0.1,    0.1,   -0.1,   -0.0,    0.1,    0.0,    0.0,    0.2,    0.0,   -0.0,   -0.0,   -0.0,   -0.1,    0.0,    0.0,    0.1,    0.0,   -0.0,    0.0,   -0.0,   -0.0,    0.0,   -0.1,   -0.1,   -0.0,   -0.0,   -0.0,   -0.1,   -0.0,    0.0,   -0.0,   -0.0,   -0.0,   -0.0,    0.1,    0.1,    0.0,    0.0,    0.1,    0.1,    0.1,    0.1,    0.1,    0.1,    0.1,    0.1,   -0.2,   -0.3,  999.0,  999.0,  999.0,  999.0
2012/03/22 13:20,  999.0,    0.1,   -0.1,   -0.1,    0.1,    0.0,   -0.2,    0.1,    0.0,    0.0,    0.0,    0.0,   -0.0,   -0.0,    0.0,   -0.1,  999.0,    0.0,  999.0,    0.1,    0.1,   -0.1,    0.1,    0.3,    0.1,    0.1,    0.2,    0.0,   -0.0,   -0.1,    0.0,    0.0,   -0.0,   -0.0,    0.1,   -0.0,    0.0,    0.1,    0.0,   -0.1,   -0.1,   -0.1,   -0.2,   -0.1,   -0.0,   -0.1,    0.0,    0.1,   -0.1,   -0.0,    0.1,    0.1,    0.1,    0.2,    0.1,   -0.0,   -0.1,    0.0,   -0.1,    0.0,   -0.0,   -0.2,   -0.1,   -0.1,   -0.1,   -0.0,   -0.0,    0.0,    0.1,   -0.1,   -0.1,    0.0,   -0.1,   -0.2,    0.0,    0.2,  999.0,  999.0,  999.0,  999.0
2012/03/22 13:30,  999.0,  999.0,   -0.0,   -0.0,   -0.1,   -0.1,  999.0,   16.6,   12.9,   14.1,   15.5,   14.2,   17.2,   13.7,   10.7,   10.3,    4.3,    4.6,    6.9,    8.8,  999.0,   -0.1,   -0.2,  999.0,   -0.1,    0.0,   -0.0,   -0.1,    0.2,   -0.1,    0.0,   -0.1,   -0.1,   -0.1,   -0.0,    0.1,    0.3,    0.3,   -0.1,  999.0,  999.0,   -0.2,   -0.2,  999.0,   -0.2,    0.2,    0.4,    0.2,   -0.2,    0.0,    0.1,   -0.0,   -0.1,   -0.2,    0.1,    0.0,  999.0,  999.0,  999.0,   -0.0,    0.1,  999.0,    0.1,  999.0,  999.0,    0.1,    0.1,   -0.0,    0.1,    0.3,  999.0,  999.0,    0.3,  999.0,  999.0,    0.1,  999.0,  999.0,  999.0,  999.0
2012/03/22 13:40,  999.0,  999.0,  999.0,  999.0,   -0.0,  999.0,    0.0,    0.6,  999.0,   12.7,   13.1,    9.2,   12.4,   14.9,  999.0,  999.0,  999.0,   19.1,   17.4,   21.1,  999.0,  999.0,  999.0,    0.3,   -0.2,   -0.1,    0.1,    0.0,   -0.0,   -0.2,    0.1,    0.1,    0.0,   -0.1,   -0.2,    0.1,    0.2,    0.1,   -0.0,   -0.1,    0.0,    0.0,   -0.0,    0.2,    0.2,    0.0,   -0.0,    0.0,    0.0,    0.1,   -0.0,    0.1,    0.1,    0.1,   -0.1,    0.2,    0.1,    0.1,   -0.0,   -0.1,   -0.1,   -0.3,   -0.0,    0.1,   -0.2,    0.1,   -0.1,    0.0,    0.1,  999.0,    0.2,   -0.2,  999.0,    0.0,   -0.2,  999.0,  999.0,  999.0,  999.0,  999.0
2012/03/22 13:50,  999.0,  999.0,    5.4,  999.0,    9.8,  999.0,  999.0,  999.0,  999.0,   23.3,   22.5,   21.8,   25.0,   30.2,   29.2,   27.2,   29.5,   26.7,   21.6,   22.0,   22.5,   21.0,  999.0,  999.0,  999.0,  999.0,   -0.1,   -0.1,   -0.1,   -0.0,    0.2,   -0.2,   -0.1,   -0.0,    0.1,    0.2,   -0.0,    0.1,    0.2,   -0.0,   -0.3,   -0.1,    0.3,    0.2,   -0.2,   -0.0,    0.1,   -0.3,    0.1,    0.0,    0.0,    0.1,   -0.1,    0.1,    0.0,    0.0,    0.0,   -0.0,    0.1,    0.0,   -0.1,   -0.0,   -0.0,    0.0,   -0.0,   -0.0,    0.1,   -0.0,    0.3,  999.0,  999.0,    0.2,  999.0,    0.5,  999.0,  999.0,  999.0,  999.0,  999.0,   -0.2
2012/03/22 14:00,  999.0,  999.0,  999.0,  999.0,  999.0,  999.0,  999.0,  999.0,  999.0,   16.5,   19.9,   12.2,   14.8,   22.2,   19.8,   19.2,   22.3,   23.9,   25.0,   23.1,   24.3,   29.5,  999.0,  999.0,  999.0,  999.0,  999.0,  999.0,    0.1,   -0.2,   -0.1,  999.0,    0.1,    0.1,    0.2,   -0.1,   -0.5,   -0.0,   -0.1,   -0.0,   -0.2,   -0.0,   -0.0,   -0.0,   -0.0,    0.1,   -0.1,    0.0,    0.2,   -0.2,   -0.0,   -0.0,    0.2,   -0.1,   -0.2,    0.1,    0.0,    0.2,   -0.1,   -0.0,    0.1,    0.2,   -0.2,   -0.3,   -0.2,    0.0,   -0.1,   -0.0,  999.0,  999.0,  999.0,  999.0,   -0.0,  999.0,  999.0,  999.0,  999.0,  999.0,  999.0,  999.0
2012/03/22 14:10,  999.0,  999.0,  999.0,  999.0,  999.0,  999.0,  999.0,  999.0,   27.6,   28.6,   29.3,   25.4,   27.5,   31.3,   26.9,   32.6,   32.4,   34.8,   32.8,   35.8,  999.0,  999.0,  999.0,  999.0,  999.0,  999.0,  999.0,  999.0,   -0.3,   -0.2,   -0.4,   -0.4,   -0.2,    0.1,    0.2,   -0.2,  999.0,    0.2,   -0.2,  999.0,   -0.0,    0.2,   -0.1,   -0.3,   -0.1,    0.0,    0.1,   -0.1,    0.1,   -0.0,    0.1,    0.1,  999.0,  999.0,  999.0,    0.0,   -0.1,    0.2,    0.2,   -0.4,    0.0,   -0.1,   -0.0,   -0.0,  999.0,   -0.1,  999.0,    0.2,    0.2,  999.0,  999.0,  999.0,  999.0,  999.0,  999.0,  999.0,  999.0,  999.0,  999.0,  999.0
2012/03/22 14:20,  999.0,  999.0,  999.0,  999.0,  999.0,  999.0,  999.0,  999.0,  999.0,  999.0,   15.5,  999.0,   15.8,  999.0,  999.0,  999.0,   20.2,  999.0,  999.0,  999.0,  999.0,  999.0,  999.0,  999.0,  999.0,  999.0,  999.0,  999.0,  999.0,  999.0,  999.0,  999.0,  999.0,  999.0,  999.0,  999.0,  999.0,  999.0,  999.0,  999.0,  999.0,  999.0,  999.0,  999.0,  999.0,  999.0,  999.0,  999.0,  999.0,  999.0,  999.0,  999.0,  999.0,  999.0,  999.0,  999.0,  999.0,  999.0,  999.0,  999.0,  999.0,  999.0,  999.0,  999.0,  999.0,  999.0,  999.0,  999.0,  999.0,  999.0,  999.0,  999.0,  999.0,  999.0,  999.0,  999.0,  999.0,  999.0,  999.0,  999.0
2012/03/22 14:30,  999.0,  999.0,    0.0,    0.1,   -0.1,    0.0,   -0.2,   -0.2,    4.1,    4.6,    5.4,    8.1,    6.3,    7.2,    7.1,    7.5,   21.9,   20.7,   23.9,   19.3,   22.9,  999.0,  999.0,  999.0,    0.0,   -0.0,    0.1,   -0.0,   -0.3,   -0.1,    0.0,  999.0,   -0.0,    0.1,   -0.0,   -0.1,   -0.0,    0.2,    0.1,   -0.0,   -0.1,   -0.2,   -0.0,   -0.1,   -0.0,    0.0,    0.1,    0.0,   -0.1,   -0.0,    0.1,    0.0,   -0.1,   -0.1,   -0.2,   -0.0,    0.0,    0.1,   -0.0,   -0.1,    0.0,    0.0,   -0.0,    0.1,    0.1,   -0.0,    0.0,    0.1,    0.0,    0.3,  999.0,    0.3,  999.0,  999.0,  999.0,  999.0,  999.0,  999.0,  999.0,  999.0
2012/03/22 14:40,  999.0,  999.0,  999.0,    0.1,   -0.2,    3.3,  999.0,    2.1,    0.1,   -0.0,    1.3,    3.2,    1.3,    0.4,    0.3,   -0.0,  999.0,  999.0,  999.0,  999.0,   30.9,  999.0,  999.0,  999.0,  999.0,    0.0,   -0.1,   -0.1,   -0.1,   -0.1,    0.0,   -0.1,   -0.0,    0.1,   -0.1,    0.1,    0.1,    0.1,   -0.0,   -0.1,   -0.1,   -0.0,    0.0,   -0.0,   -0.0,   -0.0,    0.1,    0.1,    0.1,    0.0,    0.0,    0.0,   -0.1,   -0.0,   -0.1,    0.0,   -0.1,   -0.1,   -0.1,    0.1,    0.2,    0.2,    0.2,   -0.1,   -0.2,   -0.0,   -0.0,    0.1,    0.0,   -0.1,    0.1,  999.0,  999.0,    0.2,    0.1,  999.0,  999.0,  999.0,  999.0,  999.0
2012/03/22 14:50,  999.0,  999.0,    4.7,    0.1,  999.0,  999.0,    3.9,    2.4,  999.0,  999.0,  999.0,    1.2,  999.0,    1.1,  999.0,    4.3,    6.4,   -0.1,    0.1,    4.2,    4.7,   -0.4,   -0.4,   -0.3,    5.5,    0.0,   -0.0,   -0.2,   -0.2,    0.1,    0.1,    0.0,    0.1,    0.0,    0.1,    0.0,   -0.1,   -0.1,    0.0,   -0.0,   -0.2,   -0.1,   -0.1,   -0.0,   -0.0,    0.1,    0.0,    0.0,    0.1,   -0.1,    0.0,   -0.0,    0.1,   -0.1,    0.1,   -0.0,    0.1,   -0.0,   -0.0,   -0.0,    0.0,    0.1,    0.0,    0.1,    0.0,    0.2,   -0.1,   -0.1,    0.1,    0.1,   -0.1,    0.1,   -0.3,   -0.1,   -0.1,  999.0,  999.0,  999.0,  999.0,  999.0
2012/03/22 15:00,  999.0,  999.0,  999.0,    7.4,  999.0,    7.3,    5.5,    7.4,    7.7,    9.8,   10.8,  999.0,   13.2,  999.0,  999.0,  999.0,  999.0,  999.0,  999.0,  999.0,   15.5,  999.0,  999.0,  999.0,  999.0,  999.0,   -0.2,  999.0,    0.1,    0.1,    0.1,   -0.0,  999.0,   -0.0,    0.1,    0.1,    0.0,    0.4,  999.0,    0.2,  999.0,   -0.0,    0.1,  999.0,    0.1,    0.1,   -0.1,    0.1,   -0.1,    0.2,    0.0,  999.0,    0.1,   -0.0,   -0.2,    0.1,   -0.0,    0.2,   -0.0,    0.0,    0.2,   -0.1,   -0.0,   -0.1,  999.0,   -0.0,    0.1,    0.1,  999.0,   -0.0,  999.0,  999.0,  999.0,  999.0,  999.0,  999.0,  999.0,  999.0,  999.0,  999.0
2012/03/22 15:10,  999.0,  999.0,  999.0,    5.7,    1.8,  999.0,  999.0,    7.8,    6.9,    7.3,    9.5,   17.8,    9.8,  999.0,   13.2,   11.7,  999.0,  999.0,  999.0,  999.0,  999.0,  999.0,  999.0,  999.0,  999.0,  999.0,  999.0,  999.0,  999.0,   -0.2,    0.0,    0.2,    0.3,  999.0,    0.1,    0.0,   -0.0,   -0.0,  999.0,   -0.0,   -0.3,   -0.1,  999.0,    0.2,    0.1,    0.1,    0.0,    0.1,  999.0,    0.0,    0.2,    0.0,   -0.2,   -0.3,    0.3,    0.1,   -0.0,   -0.2,    0.3,    0.3,    0.2,   -0.2,   -0.3,  999.0,  999.0,   -0.2,   -0.0,    0.0,  999.0,    0.0,  999.0,    0.3,  999.0,  999.0,  999.0,  999.0,  999.0,  999.0,  999.0,  999.0
2012/03/22 15:20,  999.0,  999.0,  999.0,   10.1,    9.2,   17.9,   15.9,   14.9,    8.3,    8.9,   12.0,   11.5,  999.0,  999.0,   15.7,  999.0,  999.0,  999.0,  999.0,   28.5,  999.0,   26.6,  999.0,  999.0,  999.0,  999.0,  999.0,  999.0,  999.0,    0.1,   -0.0,    0.0,    0.2,    0.1,    0.3,   -0.0,   -0.0,  999.0,  999.0,   -0.1,    0.0,   -0.0,   -0.1,   -0.1,    0.1,    0.1,    0.1,   -0.1,    0.1,    0.1,    0.2,    0.2,    0.2,   -0.2,   -0.0,    0.2,    0.1,   -0.1,    0.0,   -0.1,    0.0,   -0.1,   -0.1,    0.2,   -0.1,    0.1,    0.1,    0.1,    0.2,  999.0,  999.0,  999.0,   -0.0,  999.0,  999.0,  999.0,  999.0,  999.0,  999.0,  999.0
2012/03/22 15:30,  999.0,  999.0,  999.0,  999.0,  999.0,  999.0,  999.0,  999.0,  999.0,  999.0,  999.0,    7.2,  999.0,  999.0,   20.5,  999.0,  999.0,  999.0,  999.0,  999.0,  999.0,  999.0,   19.0,  999.0,  999.0,  999.0,  999.0,  999.0,    0.0,   -0.2,    0.1,   -0.1,    0.0,   -0.1,  999.0,    0.4,    0.1,  999.0,  999.0,   -0.1,   -0.1,   -0.0,    0.0,   -0.1,    0.1,   -0.0,   -0.2,   -0.1,   -0.0,    0.1,   -0.0,   -0.2,   -0.1,    0.0,    0.2,    0.1,   -0.3,   -0.1,    0.6,    0.3,    0.1,    0.0,    0.1,    0.1,    0.0,   -0.1,   -0.0,   -0.0,   -0.0,  999.0,   -0.2,  999.0,  999.0,  999.0,  999.0,  999.0,  999.0,  999.0,  999.0,  999.0
2012/03/22 15:40,  999.0,    0.4,  999.0,    1.6,    0.2,   -0.1,    2.1,    1.9,   -0.8,    0.3,  999.0,    0.7,    1.3,    0.5,    0.2,   -1.0,  999.0,  999.0,  999.0,  999.0,  999.0,  999.0,  999.0,    7.5,   -2.1,   -0.6,   -0.8,   -0.7,   -0.7,   -0.4,    0.2,   -0.1,    0.1,   -0.1,   -0.1,   -0.2,   -0.6,    0.2,   -0.2,    0.1,   -0.1,   -0.4,    0.1,   -0.2,   -0.2,    0.1,   -0.0,    0.0,    0.1,   -0.0,   -0.1,   -0.1,    0.0,   -0.0,    0.2,    0.1,   -0.1,   -0.0,   -0.0,    0.0,   -0.1,    0.2,   -0.2,   -0.1,   -0.0,   -0.0,   -0.2,    0.0,    0.3,    0.0,   -0.0,    0.1,  999.0,  999.0,  999.0,  999.0,  999.0,  999.0,  999.0,  999.0
2012/03/22 15:50,  999.0,   -0.3,   -0.2,   -0.2,    0.8,    0.5,    0.4,    0.8,    0.6,    0.9,    0.9,    0.3,    0.3,    0.8,   -0.1,    0.0,    0.2,    0.2,   -0.8,  999.0,  999.0,  999.0,   -2.1,   -2.1,   -0.7,   -0.4,   -0.8,   -1.8,   -0.3,   -0.1,    0.3,   -0.2,   -0.2,   -0.1,    0.1,    0.1,    0.2,   -0.1,   -0.0,   -0.2,   -0.2,   -0.3,   -0.1,   -0.2,   -0.3,   -0.0,   -0.0,    0.1,    0.0,    0.1,    0.2,   -0.1,   -0.2,    0.1,   -0.1,    0.1,    0.0,   -0.2,   -0.1,    0.1,    0.1,    0.1,   -0.1,    0.0,   -0.1,  999.0,    0.0,   -0.3,   -0.5,  999.0,   -0.0,    0.3,  999.0,  999.0,  999.0,  999.0,  999.0,  999.0,  999.0,  999.0
2012/03/22 16:00,  999.0,   -0.1,   -0.1,   -0.5,    0.0,   -0.5,  999.0,    1.0,  999.0,    0.4,  999.0,  999.0,  999.0,  999.0,  999.0,  999.0,   15.8,  999.0,  999.0,  999.0,  999.0,  999.0,  999.0,  999.0,  999.0,  999.0,   -1.8,   -0.6,   -0.1,   -0.1,   -0.1,    0.1,    0.2,    0.1,   -0.2,   -0.0,    0.2,   -0.0,   -0.0,   -0.1,   -0.7,   -0.5,   -0.0,  999.0,   -0.0,   -0.1,    0.0,   -0.2,    0.3,   -0.0,    0.0,   -0.2,   -0.1,   -0.0,    0.1,    0.5,    0.2,    0.0,    0.1,    0.1,   -0.2,   -0.1,   -0.1,   -0.4,   -0.1,    0.1,  999.0,  999.0,   -0.1,  999.0,  999.0,  999.0,    0.6,  999.0,  999.0,  999.0,  999.0,  999.0,  999.0,  999.0
2012/03/22 16:10,  999.0,    0.3,   -0.3,    0.2,   -0.4,    0.5,    0.3,    0.6,   -0.0,    0.2,  999.0,  999.0,  999.0,  999.0,  999.0,  999.0,  999.0,  999.0,  999.0,  999.0,  999.0,  999.0,  999.0,   -1.4,   -0.6,   -0.7,    0.0,    0.1,    0.1,    0.2,   -0.1,    0.1,    0.2,   -0.1,   -0.2,    0.2,    0.3,    0.3,   -0.1,    0.3,   -0.3,   -0.3,    0.1,    0.0,    0.0,   -0.0,   -0.1,   -0.1,   -0.1,    0.1,    0.0,    0.1,    0.0,   -0.1,   -0.2,    0.1,   -0.1,    0.1,   -0.1,   -0.2,   -0.0,    0.1,    0.0,    0.1,   -0.3,  999.0,    0.2,    0.5,   -0.2,    0.0,  999.0,    0.2,  999.0,   -0.1,  999.0,  999.0,  999.0,  999.0,  999.0,  999.0
2012/03/22 16:20,  999.0,    0.8,    0.6,    1.3,   -0.2,    0.1,    0.1,    0.5,  999.0,    1.9,  999.0,    0.5,  999.0,  999.0,  999.0,  999.0,  999.0,  999.0,  999.0,  999.0,   -1.3,  999.0,  999.0,   -2.7,   -1.4,   -0.6,   -0.0,   -0.1,   -0.3,    0.0,   -0.1,   -0.1,    0.1,   -0.1,    0.5,   -0.0,    0.0,    0.3,    0.1,   -0.1,   -0.4,   -0.2,   -0.0,    0.2,    0.0,   -0.2,   -0.3,   -0.1,   -0.1,   -0.1,   -0.2,    0.0,   -0.1,    0.1,   -0.1,    0.2,   -0.0,   -0.1,   -0.1,    0.1,    0.1,   -0.2,   -0.1,   -0.2,   -0.2,   -0.2,   -0.1,   -0.2,  999.0,   -0.1,    0.1,    0.1,  999.0,    0.0,   -0.3,  999.0,  999.0,  999.0,  999.0,  999.0
2012/03/22 16:30,  999.0,    0.2,    0.7,    1.1,    0.3,   -0.2,    0.5,    1.5,    0.4,    1.8,  999.0,  999.0,    0.9,    1.9,    1.6,    1.8,    1.8,    1.1,    0.5,    0.9,    0.2,    1.1,   -0.0,    0.0,   -0.3,    0.0,   -0.2,    0.1,    0.2,   -0.0,    0.1,   -0.1,   -0.0,   -0.1,    0.1,    0.1,    0.2,    0.2,    0.4,    0.1,   -0.3,   -0.4,   -0.1,   -0.2,   -0.0,    0.1,    0.2,   -0.0,   -0.0,    0.0,    0.1,   -0.0,    0.0,    0.1,   -0.0,   -0.2,   -0.0,   -0.0,    0.0,    0.0,   -0.1,   -0.2,   -0.0,    0.0,    0.1,    0.1,    0.1,    0.2,  999.0,   -0.0,   -0.2,  999.0,  999.0,   -0.3,   -0.0,  999.0,  999.0,  999.0,  999.0,  999.0
2012/03/22 16:40,  999.0,   -0.1,   -0.5,    0.2,    0.7,   -0.2,    0.4,    1.0,    0.4,    1.1,    1.1,    1.3,    1.4,    1.3,    0.7,    0.7,    0.6,    0.3,    0.1,    0.3,    0.3,    0.4,    0.1,    0.0,    0.1,    0.1,    0.0,    0.1,   -0.0,   -0.1,    0.0,   -0.1,    0.1,   -0.2,    0.0,    0.2,   -0.2,   -0.1,   -0.2,   -0.0,   -0.0,   -0.1,   -0.1,    0.0,    0.2,   -0.1,    0.0,    0.2,    0.1,    0.0,   -0.0,    0.1,    0.1,   -0.1,   -0.2,    0.1,   -0.0,   -0.1,   -0.4,    0.0,    0.3,    0.1,    0.2,   -0.3,   -0.4,    0.1,   -0.1,    0.1,    0.1,   -0.4,   -0.3,    0.3,    0.2,   -0.2,  999.0,  999.0,  999.0,  999.0,  999.0,  999.0
2012/03/22 16:50,  999.0,   -0.5,   -0.1,    0.3,    0.4,    0.1,   -0.1,    0.3,    0.7,    0.7,    0.5,    0.1,    0.3,    0.3,    0.6,    0.8,    0.6,    0.8,    0.9,    1.1,    1.4,    1.6,    2.0,    0.8,    0.1,    0.1,   -0.0,    0.0,    0.2,    0.1,    0.1,   -0.0,   -0.1,    0.2,   -0.0,   -0.0,   -0.0,   -0.5,   -0.3,   -0.1,   -0.4,   -0.1,    0.1,   -0.1,    0.1,    0.0,   -0.0,    0.2,    0.2,    0.0,   -0.1,   -0.0,   -0.1,    0.1,   -0.3,   -0.1,   -0.2,   -0.0,   -0.2,   -0.1,   -0.2,    0.0,   -0.1,    0.2,   -0.0,   -0.2,   -0.2,   -0.0,   -0.1,    0.0,    0.0,    0.2,  999.0,    0.1,    0.1,  999.0,  999.0,  999.0,  999.0,  999.0
2012/03/22 17:00,  999.0,   -0.1,    0.9,    1.0,    0.3,    0.4,    0.4,    0.9,    0.8,   -0.1,    0.5,    0.9,   -0.4,    0.4,    0.4,   -0.2,    2.6,    1.6,    2.2,    2.5,    4.3,    4.4,    4.7,    1.9,    1.1,    0.0,   -0.1,    0.1,   -0.0,   -0.1,   -0.3,    0.2,    0.2,    0.0,   -0.8,   -0.2,    0.2,    0.1,   -0.2,   -0.0,   -0.2,   -0.2,   -0.2,   -0.0,   -0.1,   -0.0,    0.2,   -0.1,   -0.2,    0.1,   -0.0,   -0.1,    0.0,   -0.1,   -0.0,    0.1,    0.1,   -0.1,   -0.1,   -0.1,    0.2,    0.1,   -0.1,    0.1,    0.1,   -0.1,  999.0,    0.1,   -0.1,    0.0,    0.1,    0.1,   -0.1,    0.0,  999.0,  999.0,  999.0,  999.0,  999.0,  999.0
2012/03/22 17:10,  999.0,   -0.2,    0.1,    0.6,    0.2,    0.7,    0.6,    0.5,    1.6,   -0.3,    0.2,    0.8,    1.1,    1.7,    1.8,    1.9,    4.2,    3.3,    3.3,    3.1,    3.8,  999.0,  999.0,  999.0,    1.3,    0.2,   -0.2,    0.1,   -0.1,   -0.1,    0.2,   -0.1,   -0.1,   -0.3,   -0.2,   -0.1,   -0.3,    0.1,   -0.2,    0.1,   -0.1,   -0.4,   -0.2,   -0.1,    0.1,    0.1,    0.1,   -0.1,    0.1,    0.1,   -0.0,    0.3,    0.2,    0.1,    0.1,   -0.0,   -0.1,   -0.1,    0.1,    0.1,    0.0,   -0.0,    0.2,   -0.0,  999.0,    0.0,    0.1,   -0.1,   -0.1,  999.0,   -0.2,    0.1,  999.0,  999.0,  999.0,  999.0,  999.0,  999.0,  999.0,  999.0
2012/03/22 17:20,  999.0,   -0.1,    0.1,   -0.2,    0.0,    0.7,    0.9,    1.3,    0.8,   -0.2,    0.6,    1.4,    2.6,    3.7,    4.6,    6.4,  999.0,    6.8,    2.7,  999.0,   11.3,  999.0,  999.0,  999.0,  999.0,  999.0,    0.4,    0.2,    0.5,    0.0,  999.0,  999.0,    0.2,    0.3,    0.2,   -0.2,   -0.0,   -0.1,    0.1,  999.0,   -0.3,  999.0,    0.0,    0.3,    0.1,    0.1,    0.1,   -0.1,    0.0,   -0.2,   -0.1,    0.2,   -0.2,   -0.1,    0.2,    0.4,   -0.0,   -0.1,    0.0,    0.1,    0.2,   -0.0,   -0.2,    0.1,  999.0,    0.0,   -0.2,  999.0,   -0.0,    0.0,   -0.1,  999.0,  999.0,   -0.1,  999.0,  999.0,  999.0,  999.0,  999.0,  999.0
2012/03/22 17:30,  999.0,   -0.1,    0.3,   -0.0,   -0.1,    0.2,    0.4,    0.5,    0.7,    0.4,    0.6,    0.5,    0.2,    0.0,    0.7,    1.9,    1.7,    1.9,    2.5,    1.7,    0.4,    2.4,  999.0,  999.0,  999.0,  999.0,  999.0,    0.4,    0.2,   -0.0,   -0.2,    0.3,   -0.0,    0.0,    0.0,   -0.2,    0.0,  999.0,    0.0,    0.1,   -0.7,    0.1,    0.1,    0.2,   -0.0,   -0.0,   -0.0,    0.2,   -0.0,   -0.2,   -0.4,    0.0,    0.0,   -0.2,   -0.1,   -0.1,    0.1,   -0.0,    0.0,    0.1,    0.2,    0.1,   -0.1,    0.3,    0.1,    0.0,    0.1,  999.0,   -0.1,  999.0,  999.0,  999.0,   -0.3,  999.0,  999.0,  999.0,  999.0,  999.0,  999.0,  999.0
2012/03/22 17:40,  999.0,   -0.3,    0.0,   -0.1,    0.0,   -0.1,    0.4,    0.3,    0.2,   -0.3,   -0.7,   -0.3,   -0.4,    0.2,    1.1,    0.9,    0.3,    1.3,    1.8,    2.6,    3.3,    4.7,    5.8,  999.0,    7.5,  999.0,  999.0,    1.1,    0.5,    0.2,   -0.2,   -0.6,   -0.2,  999.0,    0.3,    0.1,    0.0,   -0.1,    0.0,    0.0,   -0.1,   -0.2,    0.1,   -0.0,   -0.1,    0.1,   -0.1,    0.1,    0.2,   -0.1,   -0.2,   -0.1,   -0.1,   -0.1,    0.1,   -0.0,   -0.2,   -0.1,    0.0,    0.0,    0.1,    0.1,   -0.1,    0.1,   -0.0,   -0.3,  999.0,  999.0,  999.0,  999.0,  999.0,  999.0,  999.0,  999.0,  999.0,  999.0,  999.0,  999.0,  999.0,  999.0
2012/03/22 17:50,  999.0,    0.0,   -0.5,    0.2,    0.6,    0.8,    0.6,    0.3,    0.5,   -0.1,   -0.5,   -0.3,    0.2,    0.9,    1.1,    1.5,    1.7,    1.2,    1.7,    3.7,    3.8,    5.3,  999.0,  999.0,  999.0,  999.0,  999.0,  999.0,    2.1,    1.0,  999.0,    0.2,    0.3,    0.2,   -0.1,    0.6,    0.0,    0.2,    0.1,   -0.0,   -0.1,   -0.2,   -0.1,   -0.0,    0.3,    0.1,    0.1,   -0.2,    0.2,   -0.0,   -0.4,    0.1,   -0.1,   -0.1,    0.2,    0.1,    0.1,    0.1,   -0.2,    0.2,    0.3,   -0.1,   -0.1,    0.0,    0.0,   -0.0,    0.0,  999.0,    0.2,  999.0,  999.0,  999.0,  999.0,  999.0,  999.0,  999.0,  999.0,  999.0,  999.0,  999.0
2012/03/22 18:00,  999.0,   -0.2,   -0.1,    0.1,   -0.3,   -0.3,   -0.3,   -0.3,   -0.4,   -0.0,    0.8,    1.2,    2.3,    1.9,    0.7,    2.9,    4.0,    3.8,    5.3,  999.0,  999.0,  999.0,   10.7,  999.0,  999.0,  999.0,  999.0,  999.0,  999.0,  999.0,    0.0,  999.0,   -0.1,  999.0,    0.4,  999.0,    0.1,   -0.1,  999.0,   -0.3,   -0.1,   -0.1,   -0.0,    0.1,    0.0,    0.1,    0.2,    0.2,    0.1,   -0.1,    0.0,   -0.1,    0.1,    0.2,   -0.1,   -0.2,   -0.2,    0.0,   -0.2,    0.1,   -0.1,   -0.0,    0.1,    0.2,   -0.1,   -0.1,  999.0,    0.1,    0.2,  999.0,  999.0,  999.0,  999.0,  999.0,  999.0,  999.0,  999.0,  999.0,  999.0,  999.0
2012/03/22 18:10,  999.0,    0.1,   -0.6,   -0.2,   -0.2,    0.1,   -0.0,    0.0,    0.1,    0.1,    0.1,    0.7,    2.4,    3.5,    4.0,    4.8,    5.6,    5.0,    5.2,    8.1,   11.1,   11.3,   11.5,   14.2,  999.0,  999.0,   10.1,  999.0,    1.8,  999.0,   -0.1,    0.1,   -0.3,   -0.3,   -0.1,   -0.0,   -0.2,   -0.0,  999.0,   -0.4,   -0.1,   -0.0,   -0.1,   -0.2,    0.1,   -0.1,    0.1,    0.3,    0.2,    0.1,    0.0,   -0.0,    0.0,   -0.0,    0.0,    0.2,   -0.2,    0.1,   -0.0,   -0.1,    0.1,    0.2,    0.4,   -0.0,   -0.1,   -0.1,    0.1,    0.2,    0.4,  999.0,  999.0,  999.0,   -0.4,  999.0,  999.0,  999.0,  999.0,  999.0,  999.0,  999.0
2012/03/22 18:20,  999.0,  999.0,   -0.3,    0.2,    0.1,    0.1,    0.0,    0.1,    0.2,   -0.1,    0.0,    0.3,    1.6,    3.0,    5.1,    4.4,    3.9,    3.7,    1.5,  999.0,    8.8,  999.0,  999.0,  999.0,  999.0,   10.3,  999.0,    3.4,  999.0,  999.0,  999.0,    0.0,    0.3,    0.3,    0.0,    0.2,    0.2,  999.0,  999.0,   -0.5,   -0.1,   -0.4,   -0.2,   -0.0,   -0.2,    0.2,    0.7,    0.1,   -0.2,    0.0,   -0.1,    0.1,   -0.2,   -0.1,   -0.0,   -0.1,    0.1,    0.1,   -0.1,    0.0,   -0.1,   -0.2,    0.0,    0.4,    0.1,   -0.1,   -0.2,   -0.1,  999.0,   -0.0,  999.0,  999.0,  999.0,    0.3,  999.0,  999.0,  999.0,  999.0,  999.0,  999.0
2012/03/22 18:30,  999.0,   -0.1,   -0.4,    0.3,    0.2,    0.1,   -0.2,   -0.2,    0.2,    0.1,    0.1,    0.9,    2.0,    4.4,    4.1,    5.3,    3.8,    1.3,    2.2,    4.1,    4.0,    9.2,   10.2,   13.6,  999.0,  999.0,  999.0,  999.0,  999.0,  999.0,  999.0,    0.5,  999.0,  999.0,    0.1,   -0.2,  999.0,  999.0,  999.0,   -0.5,   -0.8,   -0.2,   -0.1,   -0.1,   -0.0,    0.0,   -0.1,   -0.1,   -0.1,   -0.0,    0.1,    0.2,    0.0,   -0.0,   -0.1,   -0.1,   -0.0,    0.0,    0.1,   -0.0,    0.0,   -0.3,   -0.1,    0.0,   -0.2,   -0.1,   -0.0,   -0.1,    0.2,  999.0,  999.0,  999.0,  999.0,  999.0,  999.0,  999.0,  999.0,  999.0,  999.0,  999.0
2012/03/22 18:40,  999.0,    0.2,    0.6,   -0.1,   -0.3,   -0.5,   -0.3,   -0.4,    0.7,    0.9,    2.2,    2.0,    4.0,    4.8,    5.5,    6.0,    6.8,  999.0,    5.3,    8.5,    9.0,   13.2,   15.0,  999.0,  999.0,  999.0,  999.0,  999.0,    2.6,    1.5,    0.4,    0.1,  999.0,  999.0,  999.0,   -0.2,  999.0,  999.0,  999.0,  999.0,   -0.5,   -0.2,    0.3,   -0.0,   -0.1,   -0.1,   -0.1,    0.0,    0.0,   -0.1,   -0.0,    0.0,   -0.0,    0.0,   -0.0,   -0.3,   -0.2,    0.1,   -0.1,    0.1,    0.3,    0.2,    0.0,   -0.1,    0.0,    0.1,    0.0,  999.0,   -0.0,  999.0,  999.0,  999.0,  999.0,  999.0,  999.0,  999.0,  999.0,  999.0,  999.0,  999.0
2012/03/22 18:50,  999.0,    0.1,    0.6,    0.4,    0.1,   -0.6,   -0.9,   -0.8,   -1.1,   -1.0,   -1.9,   -0.4,   -0.1,    3.4,    4.5,    4.9,    4.4,    5.1,    4.8,    2.7,  999.0,  999.0,  999.0,  999.0,  999.0,  999.0,  999.0,    3.9,    0.3,    0.1,  999.0,   -0.1,    0.1,    0.1,    0.1,  999.0,   -0.0,  999.0,   -0.1,   -0.1,   -0.6,   -0.3,   -0.1,   -0.1,    0.2,    0.1,    0.0,    0.1,   -0.0,   -0.0,   -0.1,   -0.2,   -0.3,    0.0,    0.3,    0.3,    0.4,    0.2,   -0.1,   -0.1,   -0.1,   -0.1,    0.2,   -0.0,   -0.2,    0.3,   -0.1,   -0.1,   -0.1,  999.0,  999.0,  999.0,    0.1,   -0.1,  999.0,  999.0,  999.0,  999.0,  999.0,  999.0
2012/03/22 19:00,  999.0,    0.3,    1.0,    0.4,    0.1,   -0.4,   -0.2,    0.1,    0.8,    0.3,  999.0,  999.0,  999.0,    2.4,    2.7,    6.4,    4.7,    2.7,    1.8,    4.1,  999.0,  999.0,  999.0,  999.0,  999.0,  999.0,  999.0,  999.0,    0.3,    0.2,    0.5,   -0.1,   -0.3,   -0.1,    0.2,  999.0,  999.0,  999.0,  999.0,   -0.2,   -0.4,   -0.4,   -0.0,   -0.1,   -0.3,    0.1,   -0.1,   -0.1,   -0.0,   -0.1,    0.2,    0.0,    0.1,   -0.3,    0.2,   -0.3,   -0.0,   -0.0,   -0.2,    0.2,   -0.0,   -0.4,    0.1,   -0.0,    0.1,    0.0,    0.3,    0.1,    0.0,    0.0,    0.1,   -0.0,   -0.0,  999.0,    0.5,  999.0,  999.0,  999.0,  999.0,  999.0
2012/03/22 19:10,  999.0,    0.0,   -0.3,    0.0,    0.4,   -0.4,   -0.2,   -0.3,    0.0,    0.2,   -0.7,    0.7,    2.5,    2.3,    2.7,    4.3,    6.2,    4.5,    2.8,    2.6,    3.8,    8.5,  999.0,  999.0,  999.0,  999.0,    3.5,    0.3,    0.2,    0.1,    0.0,    0.0,   -0.0,    0.1,  999.0,    0.1,  999.0,  999.0,    0.1,   -0.0,   -0.2,   -0.1,    0.1,    0.1,   -0.1,    0.0,    0.1,    0.1,    0.2,    0.3,   -0.0,   -0.1,    0.1,    0.1,   -0.2,   -0.0,    0.1,   -0.3,    0.0,    0.0,    0.1,    0.3,    0.3,    0.1,   -0.3,    0.1,    0.2,    0.0,  999.0,  999.0,  999.0,   -0.1,  999.0,  999.0,  999.0,  999.0,  999.0,  999.0,  999.0,  999.0
2012/03/22 19:20,  999.0,   -0.3,   -0.3,   -0.6,   -0.6,   -0.4,    0.3,    1.3,    1.3,    0.7,    1.1,    0.9,    0.3,    1.1,    2.5,    2.7,    1.9,    1.7,    1.5,    1.4,    3.0,    6.9,  999.0,  999.0,  999.0,    7.0,  999.0,    2.8,    1.8,    0.2,  999.0,    0.2,    0.1,   -0.1,   -0.2,   -0.1,   -0.1,   -0.6,    0.2,   -0.1,   -0.2,   -0.2,    0.2,    0.1,    0.2,    0.1,    0.1,   -0.0,  999.0,    0.0,   -0.1,    0.0,    0.1,   -0.0,   -0.0,   -0.0,    0.0,    0.1,   -0.2,    0.0,   -0.0,   -0.1,   -0.1,    0.0,    0.2,    0.3,  999.0,   -0.0,    0.3,   -0.1,  999.0,  999.0,    0.1,    0.1,  999.0,  999.0,  999.0,  999.0,  999.0,  999.0
2012/03/22 19:30,  999.0,    0.0,    0.6,   -0.5,   -0.4,   -0.6,   -0.8,    0.1,    0.6,    0.8,    1.0,    1.6,    1.5,    3.2,    1.2,    2.7,    3.2,    2.0,    0.7,    1.2,    2.5,  999.0,  999.0,  999.0,  999.0,  999.0,  999.0,  999.0,    0.5,    0.3,    0.4,    0.4,    0.1,  999.0,    0.3,  999.0,   -0.0,    0.1,   -0.2,  999.0,    0.2,   -0.1,    0.1,    0.0,    0.1,    0.1,  999.0,    0.3,    0.0,    0.0,    0.3,   -0.0,   -0.0,   -0.1,    0.1,    0.1,    0.0,   -0.1,   -0.0,   -0.0,   -0.1,    0.2,    0.1,    0.1,    0.2,    0.0,    0.0,    0.3,    0.1,    0.2,   -0.0,    0.1,    0.3,  999.0,  999.0,  999.0,  999.0,  999.0,  999.0,  999.0
2012/03/22 19:40,  999.0,    0.0,    0.0,    0.4,   -0.6,   -0.3,   -0.9,   -0.7,   -0.3,    1.7,  999.0,    3.8,    4.0,    4.5,    4.0,    2.1,    2.4,    2.0,    1.2,    0.9,    0.8,  999.0,  999.0,  999.0,  999.0,  999.0,  999.0,    0.9,    0.2,   -0.1,    0.1,    0.0,   -0.1,   -0.4,  999.0,  999.0,   -0.1,   -0.1,    0.2,  999.0,   -0.1,    0.3,    0.2,   -0.0,   -0.1,    0.1,   -0.0,    0.0,   -0.0,    0.0,    0.3,    0.1,   -0.2,   -0.1,   -0.1,    0.0,    0.1,   -0.3,   -0.0,   -0.2,    0.1,   -0.0,    0.3,   -0.0,   -0.1,    0.1,   -0.1,   -0.1,    0.0,    0.0,   -0.2,   -0.1,  999.0,    0.2,  999.0,  999.0,  999.0,  999.0,  999.0,  999.0
2012/03/22 19:50,  999.0,   -0.1,   -0.5,   -1.3,   -1.1,  999.0,   -1.9,    0.8,    0.1,    5.4,    5.7,    6.7,    3.8,    7.3,    4.3,    5.9,    3.6,    2.4,  999.0,    0.7,  999.0,  999.0,  999.0,  999.0,  999.0,  999.0,  999.0,  999.0,    0.1,    0.4,    0.2,   -0.2,  999.0,  999.0,  999.0,  999.0,  999.0,  999.0,   -0.3,   -0.1,   -0.4,   -0.2,   -0.3,   -0.3,   -0.1,    0.0,    0.0,    0.0,   -0.0,    0.4,    0.0,    0.2,    0.1,    0.4,   -0.1,   -0.1,    0.0,   -0.2,    0.0,   -0.0,   -0.1,   -0.1,   -0.2,   -0.1,   -0.0,    0.1,   -0.1,   -0.0,  999.0,  999.0,   -0.0,    0.1,  999.0,   -0.1,  999.0,  999.0,  999.0,  999.0,  999.0,  999.0
2012/03/22 20:00,  999.0,   -0.2,   -0.4,   -1.3,   -1.9,   -1.0,    0.3,   -0.2,    0.5,    1.0,    0.5,   -0.3,   -0.1,    0.9,  999.0,    2.6,    0.0,    0.4,    0.4,    0.4,    1.1,    0.2,  999.0,  999.0,  999.0,  999.0,  999.0,   -0.7,   -0.7,   -0.3,  999.0,    0.3,    0.2,  999.0,   -0.2,   -0.1,  999.0,    0.1,    0.1,  999.0,  999.0,    0.0,  999.0,   -0.0,  999.0,  999.0,    0.2,   -0.2,  999.0,   -0.1,  999.0,    0.0,   -0.4,   -0.3,    0.3,    0.2,    0.1,    0.1,    0.1,    0.1,   -0.2,   -0.0,   -0.0,    0.0,   -0.0,    0.1,  999.0,  999.0,    0.1,  999.0,   -0.1,   -0.3,  999.0,    0.0,   -0.2,  999.0,  999.0,  999.0,  999.0,  999.0
2012/03/22 20:10,  999.0,   -0.2,    0.2,   -0.3,   -0.3,   -0.2,   -0.5,    1.0,    1.2,    1.5,    3.0,    3.3,    3.5,    4.0,    4.1,    6.6,    5.1,    4.8,    4.2,    4.7,    2.9,  999.0,   10.6,    9.0,  999.0,  999.0,  999.0,  999.0,   -0.5,  999.0,   -0.2,  999.0,  999.0,    0.2,    0.0,    0.1,  999.0,  999.0,    0.2,    0.2,   -0.3,   -0.2,   -0.1,   -0.5,   -0.1,    0.0,    0.0,    0.0,    0.1,    0.1,  999.0,  999.0,    0.4,    0.3,    0.2,    0.3,    0.0,    0.0,   -0.1,    0.0,    0.1,    0.2,   -0.1,   -0.1,   -0.1,   -0.2,   -0.1,   -0.0,  999.0,  999.0,  999.0,   -0.3,  999.0,  999.0,  999.0,  999.0,  999.0,  999.0,  999.0,  999.0
2012/03/22 20:20,  999.0,    0.3,    0.0,    0.2,   -0.2,   -1.5,   -0.9,   -1.2,    1.3,    3.6,    4.7,    6.7,    4.9,    5.9,    6.9,    8.3,    7.9,    2.4,    3.6,   18.9,  999.0,  999.0,  999.0,   14.7,  999.0,  999.0,  999.0,  999.0,  999.0,  999.0,    0.4,    0.1,   -0.3,  999.0,  999.0,  999.0,  999.0,  999.0,  999.0,  999.0,  999.0,  999.0,  999.0,  999.0,  999.0,   -0.1,    0.1,    0.1,    0.2,    0.1,  999.0,  999.0,    0.3,   -0.2,    0.2,    0.2,   -0.2,   -0.1,    0.4,   -0.2,  999.0,    0.3,    0.2,    0.5,   -0.1,    0.3,    0.1,   -0.3,  999.0,  999.0,  999.0,   -0.1,    0.0,   -0.0,    0.2,  999.0,  999.0,  999.0,  999.0,  999.0
2012/03/22 20:30,  999.0,    0.1,   -0.0,    0.4,   -0.3,   -0.1,   -1.1,   -1.3,    0.1,    0.7,    0.7,    1.8,    1.5,    1.6,    3.8,  999.0,  999.0,  999.0,  999.0,  999.0,    9.7,  999.0,  999.0,  999.0,  999.0,  999.0,  999.0,  999.0,  999.0,  999.0,  999.0,  999.0,  999.0,   -0.1,  999.0,  999.0,  999.0,  999.0,  999.0,  999.0,  999.0,  999.0,  999.0,  999.0,   -0.3,    0.1,   -0.1,   -0.1,  999.0,    0.3,  999.0,    0.2,   -0.2,   -0.0,    0.1,    0.1,    0.1,   -0.0,    0.1,   -0.1,   -0.2,   -0.1,    0.1,   -0.1,   -0.2,   -0.1,    0.2,   -0.3,  999.0,    0.1,  999.0,  999.0,  999.0,  999.0,  999.0,  999.0,  999.0,  999.0,  999.0,  999.0
2012/03/22 20:40,  999.0,    0.1,    0.7,    0.1,   -0.1,    0.3,    1.8,    0.9,    1.1,    1.2,    1.4,    1.8,    3.3,  999.0,  999.0,    5.3,  999.0,    2.7,    2.4,    3.5,    3.4,    2.0,  999.0,  999.0,  999.0,  999.0,   -0.3,   -0.3,   -0.1,    0.1,   -0.0,   -0.0,    0.0,  999.0,   -0.1,    0.0,  999.0,   -0.4,  999.0,   -0.2,   -0.7,   -0.6,  999.0,  999.0,  999.0,    0.1,    0.0,   -0.2,   -0.0,   -0.1,   -0.1,    0.3,   -0.1,    0.0,   -0.0,   -0.0,   -0.1,    0.1,   -0.0,   -0.0,   -0.1,   -0.0,   -0.0,   -0.2,   -0.0,   -0.2,   -0.1,   -0.2,   -0.2,  999.0,  999.0,    0.0,  999.0,  999.0,  999.0,  999.0,  999.0,  999.0,  999.0,  999.0
2012/03/22 20:50,  999.0,   -0.1,    0.0,   -0.5,   -0.7,    0.6,   -0.4,    0.6,    1.9,    2.5,    4.1,    3.2,    3.5,    2.7,    3.4,    1.6,  999.0,   -0.8,    1.0,    0.7,    1.1,  999.0,  999.0,    0.6,   -1.4,  999.0,    0.0,   -0.0,   -0.1,    0.0,    0.1,   -0.0,   -0.3,    0.0,    0.0,    0.1,    0.2,   -0.0,    0.3,    0.2,   -0.3,   -0.3,   -0.5,    0.2,   -0.2,   -0.2,    0.1,    0.1,   -0.0,    0.3,   -0.1,   -0.1,    0.1,    0.1,    0.1,   -0.0,   -0.0,   -0.2,    0.0,    0.1,    0.2,   -0.2,   -0.0,    0.0,   -0.0,   -0.2,   -0.1,  999.0,    0.3,  999.0,  999.0,  999.0,  999.0,   -0.2,  999.0,  999.0,  999.0,  999.0,  999.0,  999.0
2012/03/22 21:00,  999.0,   -0.0,   -0.8,   -0.8,   -1.0,    0.2,    0.1,   -0.5,   -0.8,   -0.3,    0.1,    0.7,    0.8,    2.2,    4.1,    4.6,  999.0,    0.6,   -1.6,   -0.9,   -1.2,   -1.1,  999.0,  999.0,  999.0,  999.0,   -1.2,    0.1,   -0.2,   -0.1,    0.0,  999.0,    0.1,   -0.1,    0.1,    0.1,  999.0,  999.0,  999.0,   -0.4,   -0.5,   -0.3,   -0.1,   -0.1,   -0.1,   -0.2,   -0.2,    0.1,    0.1,    0.1,    0.2,   -0.1,   -0.1,   -0.1,   -0.2,   -0.0,    0.1,    0.2,    0.1,    0.1,    0.1,   -0.0,   -0.1,   -0.1,    0.2,    0.1,   -0.0,   -0.1,  999.0,  999.0,  999.0,    0.2,   -0.0,   -0.0,  999.0,  999.0,  999.0,  999.0,  999.0,  999.0
2012/03/22 21:10,  999.0,    0.2,    0.5,    0.7,    0.8,    0.5,    1.4,   -0.1,    0.0,    1.7,    2.1,    2.2,    0.8,  999.0,  999.0,  999.0,   -2.3,  999.0,   -5.3,   -1.9,  999.0,  999.0,  999.0,  999.0,   -5.1,   -3.3,   -1.3,   -1.0,   -0.9,   -1.1,   -0.4,   -0.5,    0.1,    0.1,   -0.0,    0.1,  999.0,  999.0,   -0.1,   -0.2,   -0.1,   -0.3,   -0.1,   -0.2,   -0.3,   -0.2,   -0.1,   -0.1,   -0.1,   -0.2,   -0.1,   -0.2,   -0.0,   -0.1,    0.0,   -0.1,   -0.0,    0.3,   -0.0,    0.2,    0.1,    0.2,   -0.2,    0.3,   -0.2,    0.0,   -0.1,   -0.0,   -0.1,  999.0,  999.0,  999.0,  999.0,  999.0,  999.0,  999.0,  999.0,  999.0,  999.0,  999.0
2012/03/22 21:20,  999.0,   -0.1,   -0.0,    0.7,   -0.8,    1.0,    1.3,    1.3,    0.4,    0.6,    3.5,    5.4,  999.0,    6.2,  999.0,  999.0,  999.0,  999.0,   -0.4,   -0.2,  999.0,  999.0,  999.0,  999.0,  999.0,  999.0,   -0.4,   -0.1,    0.1,   -0.2,    0.0,    0.1,    0.3,    0.4,   -0.3,    0.3,    0.3,  999.0,   -0.0,   -0.4,   -0.2,  999.0,  999.0,   -0.3,   -0.1,    0.1,    0.0,    0.0,    0.2,  999.0,    0.2,   -0.1,   -0.2,   -0.2,   -0.1,   -0.0,   -0.2,   -0.1,   -0.1,   -0.3,    0.1,   -0.1,    0.0,    0.1,   -0.2,    0.0,    0.2,    0.4,    0.1,  999.0,  999.0,  999.0,    0.3,   -0.2,  999.0,  999.0,  999.0,  999.0,  999.0,  999.0
2012/03/22 21:30,  999.0,   -0.3,   -1.1,   -0.3,   -0.3,  999.0,   -0.2,    0.7,    2.2,    2.4,    2.0,  999.0,    4.6,    3.7,    4.2,  999.0,  999.0,  999.0,    0.3,  999.0,  999.0,  999.0,  999.0,  999.0,  999.0,   -0.1,   -0.0,    0.1,   -0.2,    0.2,    0.1,   -0.1,   -0.4,  999.0,   -0.1,    0.2,  999.0,  999.0,   -0.3,   -0.2,   -0.2,   -0.1,   -0.1,    0.1,   -0.1,    0.1,   -0.2,   -0.0,   -0.2,   -0.1,  999.0,    0.2,    0.2,    0.2,    0.2,    0.1,    0.1,    0.2,   -0.1,   -0.0,    0.1,   -0.3,    0.1,   -0.0,    0.3,    0.1,    0.1,  999.0,   -0.2,  999.0,  999.0,  999.0,  999.0,  999.0,  999.0,  999.0,  999.0,  999.0,  999.0,  999.0
2012/03/22 21:40,  999.0,    0.1,    0.2,    0.1,   -0.4,   -0.6,    1.8,    1.4,    1.5,    1.2,    1.2,    1.5,    2.0,    2.2,    1.2,    1.4,    0.6,    1.3,    0.1,  999.0,   -0.8,  999.0,  999.0,  999.0,   -0.9,  999.0,   -0.2,   -0.1,    0.2,   -0.0,   -0.1,    0.1,    0.0,  999.0,    0.0,   -0.1,   -0.1,   -0.1,   -0.1,    0.1,   -0.4,  999.0,    0.1,    0.0,   -0.2,   -0.1,    0.1,   -0.0,   -0.0,  999.0,   -0.0,  999.0,   -0.1,   -0.1,    0.2,    0.2,    0.0,    0.2,    0.1,    0.1,   -0.2,   -0.1,   -0.1,    0.2,   -0.1,  999.0,   -0.1,   -0.3,    0.0,  999.0,  999.0,  999.0,  999.0,  999.0,  999.0,  999.0,  999.0,  999.0,  999.0,  999.0
2012/03/22 21:50,  999.0,   -0.1,    0.9,    0.2,   -0.0,   -0.4,    0.9,    1.7,    2.5,    2.5,    2.0,    2.5,    1.5,    1.7,    2.1,    2.8,    2.4,    2.1,    1.6,  999.0,  999.0,  999.0,  999.0,  999.0,  999.0,    0.2,  999.0,    0.1,   -0.1,   -0.2,   -0.4,    0.1,    0.1,    0.2,  999.0,  999.0,   -0.2,  999.0,   -0.0,   -0.2,    0.0,  999.0,   -0.0,    0.1,   -0.1,   -0.0,   -0.0,   -0.3,   -0.0,   -0.2,   -0.1,   -0.1,    0.2,    0.2,   -0.1,    0.1,   -0.1,   -0.1,   -0.2,   -0.3,   -0.2,    0.1,    0.0,   -0.1,  999.0,   -0.0,   -0.0,   -0.0,    0.3,  999.0,  999.0,  999.0,  999.0,  999.0,  999.0,  999.0,  999.0,  999.0,  999.0,  999.0
2012/03/22 22:00,  999.0,    0.4,    0.4,   -0.1,    1.3,    0.4,   -0.3,    1.0,    1.1,    1.9,    2.9,    2.7,    1.5,    1.8,    2.4,    3.8,    2.7,  999.0,    0.5,   -1.1,   -1.1,  999.0,  999.0,  999.0,   -2.0,   -0.6,   -0.1,   -0.3,   -0.1,    0.4,    0.3,   -0.0,   -0.4,   -0.4,  999.0,  999.0,    0.1,  999.0,    0.4,   -0.2,   -0.6,  999.0,   -0.0,   -0.1,   -0.1,   -0.0,   -0.0,   -0.1,   -0.3,   -0.0,    0.0,   -0.1,   -0.1,   -0.2,    0.1,    0.1,    0.1,   -0.1,   -0.1,    0.3,   -0.1,   -0.2,    0.0,    0.2,   -0.1,   -0.2,    0.2,   -0.0,    0.3,  999.0,  999.0,  999.0,  999.0,  999.0,  999.0,  999.0,  999.0,  999.0,  999.0,  999.0
2012/03/22 22:10,  999.0,   -0.0,    0.3,    0.7,    0.4,    0.2,    1.1,    0.8,    0.4,    2.4,    2.9,  999.0,    1.6,    2.5,    2.1,    3.8,    3.5,    4.0,  999.0,    5.2,  999.0,  999.0,  999.0,  999.0,  999.0,   -0.3,   -0.1,   -0.2,    0.1,    0.2,   -0.2,    0.5,    0.0,   -0.1,    0.2,   -0.0,   -0.4,  999.0,    0.0,   -0.0,   -0.5,   -0.3,    0.4,   -0.1,   -0.1,    0.0,   -0.3,   -0.1,   -0.1,   -0.3,   -0.3,   -0.3,   -0.2,    0.2,   -0.0,   -0.0,    0.1,    0.1,   -0.1,   -0.0,   -0.0,    0.3,   -0.0,    0.3,    0.4,   -0.0,    0.0,    0.3,  999.0,  999.0,  999.0,  999.0,   -0.2,  999.0,  999.0,  999.0,  999.0,  999.0,  999.0,  999.0
2012/03/22 22:20,  999.0,   -0.1,    0.5,    0.8,    0.4,    0.0,    0.4,    0.0,    0.9,    2.9,    3.5,    3.5,  999.0,    3.2,    2.7,    2.3,    1.3,    0.9,    0.7,  999.0,  999.0,  999.0,  999.0,  999.0,    1.9,    0.4,    0.2,   -0.1,   -0.1,    0.3,    0.1,   -0.0,    0.2,  999.0,   -0.1,   -0.1,    0.0,  999.0,    0.1,  999.0,  999.0,   -0.3,  999.0,    0.1,   -0.1,    0.0,    0.1,    0.2,   -0.3,   -0.0,    0.1,    0.0,   -0.1,   -0.1,    0.1,   -0.1,   -0.1,    0.0,   -0.3,    0.2,   -0.4,   -0.3,    0.1,    0.2,   -0.1,   -0.0,   -0.1,   -0.3,   -0.0,  999.0,  999.0,  999.0,  999.0,  999.0,  999.0,  999.0,  999.0,  999.0,  999.0,  999.0
2012/03/22 22:30,  999.0,    0.0,    0.9,    0.4,    0.4,    0.2,    0.3,    0.9,    1.3,    1.6,    1.0,  999.0,    0.6,  999.0,    1.8,    4.0,    3.8,    4.6,  999.0,  999.0,    3.8,  999.0,  999.0,  999.0,    1.1,  999.0,    0.1,   -0.4,   -0.1,   -0.1,  999.0,    0.4,    0.2,  999.0,  999.0,   -0.4,    0.2,  999.0,  999.0,  999.0,   -0.3,  999.0,   -0.2,    0.2,    0.1,    0.2,   -0.1,   -0.1,  999.0,    0.6,   -0.0,  999.0,    0.2,    0.2,    0.1,    0.0,   -0.4,   -0.1,    0.0,   -0.0,   -0.3,   -0.1,    0.1,   -0.1,    0.1,   -0.0,  999.0,  999.0,  999.0,  999.0,  999.0,  999.0,  999.0,  999.0,  999.0,  999.0,  999.0,  999.0,  999.0,  999.0
2012/03/22 22:40,  999.0,    0.6,    0.5,    0.2,    0.5,   -0.7,   -0.3,    1.4,    0.4,    2.3,    3.2,    4.3,    3.1,    1.9,    3.6,    5.3,    4.2,    5.9,    6.2,    4.6,  999.0,  999.0,  999.0,  999.0,    0.3,    0.8,   -0.7,   -0.3,   -0.2,    0.1,    0.3,   -0.1,    0.1,   -0.0,  999.0,  999.0,  999.0,  999.0,    0.5,    0.2,  999.0,   -0.0,   -0.0,   -0.2,    0.1,  999.0,  999.0,   -0.0,   -0.5,   -0.2,   -0.0,    0.1,    0.2,  999.0,   -0.0,   -0.2,   -0.1,    0.1,    0.1,   -0.1,   -0.2,   -0.1,   -0.0,    0.1,  999.0,    0.4,  999.0,   -0.3,   -0.3,  999.0,  999.0,  999.0,  999.0,  999.0,  999.0,  999.0,  999.0,  999.0,  999.0,  999.0
2012/03/22 22:50,  999.0,    0.2,    0.5,   -0.1,   -0.5,    0.3,    0.8,    1.3,    2.3,    2.9,    4.6,  999.0,    3.6,    4.3,    5.2,    4.1,    3.6,  999.0,  999.0,  999.0,  999.0,  999.0,  999.0,  999.0,  999.0,    0.1,    0.0,   -0.1,    0.0,   -0.4,   -0.3,   -0.1,    0.2,   -0.0,  999.0,  999.0,    0.1,  999.0,   -0.1,  999.0,   -0.4,    0.1,   -0.2,   -0.2,  999.0,   -0.2,   -0.3,   -0.5,  999.0,   -0.1,    0.2,   -0.1,    0.1,   -0.0,    0.0,    0.4,   -0.0,   -0.1,   -0.3,   -0.1,    0.2,    0.1,    0.0,    0.1,    0.1,  999.0,  999.0,    0.1,  999.0,  999.0,  999.0,  999.0,  999.0,  999.0,  999.0,  999.0,  999.0,  999.0,  999.0,  999.0
2012/03/22 23:00,  999.0,    0.6,    0.9,    0.7,    0.6,   -0.2,    0.7,    1.2,    3.6,    3.9,    5.6,    4.9,    3.8,    4.9,    2.4,    4.2,    2.6,    2.7,    4.3,  999.0,  999.0,  999.0,  999.0,  999.0,    1.9,   -0.3,    0.0,    0.2,   -0.1,   -0.2,    0.3,   -0.2,   -0.1,   -0.3,  999.0,  999.0,    0.2,    0.0,    0.3,  999.0,   -0.0,  999.0,    0.1,   -0.1,    0.4,    0.2,  999.0,   -0.2,  999.0,    0.1,  999.0,   -0.3,   -0.1,    0.1,    0.5,    0.1,    0.2,   -0.1,    0.2,    0.2,    0.0,   -0.2,    0.2,    0.1,  999.0,    0.1,   -0.1,    0.1,   -0.0,  999.0,  999.0,  999.0,  999.0,  999.0,  999.0,  999.0,  999.0,  999.0,  999.0,  999.0
2012/03/22 23:10,  999.0,   -0.0,    0.7,    0.8,    0.2,    0.5,    2.1,    1.4,    1.8,    2.6,    4.0,    3.8,    1.2,    1.2,    1.8,    3.2,    3.2,    2.6,    2.8,    1.8,  999.0,  999.0,  999.0,  999.0,   -0.5,   -0.0,   -0.1,    0.1,    0.3,   -0.0,    0.1,    0.1,  999.0,    0.0,   -0.1,    0.2,   -0.1,  999.0,    0.1,   -0.0,   -0.4,  999.0,   -0.1,    0.0,   -0.0,  999.0,   -0.0,    0.2,   -0.0,    0.2,    0.0,    0.1,   -0.3,   -0.1,    0.0,   -0.0,    0.0,   -0.0,    0.0,   -0.3,    0.1,   -0.0,   -0.0,    0.1,   -0.0,   -0.3,  999.0,    0.1,   -0.3,  999.0,  999.0,  999.0,  999.0,  999.0,  999.0,  999.0,  999.0,  999.0,  999.0,  999.0
2012/03/22 23:20,  999.0,   -0.1,    0.3,    0.4,    0.5,    0.6,    0.7,    0.8,    1.6,    2.2,    3.6,    1.9,  999.0,    1.2,    1.9,    3.2,    1.4,  999.0,    2.1,    3.5,  999.0,  999.0,  999.0,  999.0,  999.0,   -0.4,    0.4,    0.1,    0.2,    0.3,    0.1,   -0.5,  999.0,    0.0,  999.0,    0.2,    0.1,  999.0,  999.0,  999.0,   -0.9,   -0.2,   -0.1,   -0.1,   -0.1,   -0.2,   -0.3,   -0.8,   -0.6,  999.0,   -0.1,   -0.2,    0.1,   -0.1,    0.2,   -0.2,    0.3,   -0.1,   -0.1,   -0.0,   -0.2,    0.1,    0.2,   -0.3,    0.0,    0.1,   -0.2,   -0.0,    0.0,  999.0,  999.0,  999.0,  999.0,  999.0,  999.0,  999.0,  999.0,  999.0,  999.0,  999.0
2012/03/22 23:30,  999.0,   -0.3,    0.6,    0.0,    0.4,    0.3,    0.2,    0.2,    0.3,    1.8,    0.6,    2.1,    1.1,    2.7,    1.0,    2.8,  999.0,    3.7,    4.9,  999.0,  999.0,  999.0,  999.0,  999.0,  999.0,  999.0,  999.0,    0.0,  999.0,  999.0,  999.0,  999.0,  999.0,  999.0,  999.0,  999.0,  999.0,    0.2,  999.0,   -0.3,  999.0,  999.0,  999.0,   -0.2,   -0.1,   -0.2,   -0.2,  999.0,  999.0,    0.1,   -0.0,    0.2,   -0.3,   -0.3,    0.0,    0.1,   -0.0,    0.0,   -0.1,   -0.2,   -0.1,    0.0,   -0.1,   -0.1,   -0.1,    0.1,    0.3,  999.0,   -0.2,  999.0,  999.0,  999.0,  999.0,  999.0,  999.0,  999.0,  999.0,  999.0,  999.0,  999.0
2012/03/22 23:40,  999.0,   -0.0,    0.4,    0.3,    0.6,    0.3,    0.5,    0.6,    1.1,  999.0,  999.0,    3.2,    4.1,    5.5,    2.5,    6.5,    7.2,    6.6,    6.4,    7.3,    8.6,  999.0,  999.0,  999.0,    1.2,   -0.4,   -0.4,   -0.3,   -0.2,    0.0,    0.0,    0.2,    0.1,    0.0,   -0.1,    0.0,   -0.1,   -0.0,  999.0,   -0.4,   -0.3,  999.0,  999.0,    0.0,   -0.3,   -0.1,    0.0,   -0.2,   -0.1,   -0.2,  999.0,   -0.1,    0.3,    0.1,    0.4,    0.2,    0.1,    0.1,   -0.2,   -0.0,   -0.2,    0.1,    0.1,   -0.1,   -0.1,    0.2,    0.2,   -0.0,  999.0,  999.0,  999.0,  999.0,  999.0,  999.0,  999.0,  999.0,  999.0,  999.0,  999.0,  999.0
2012/03/22 23:50,  999.0,    0.0,    0.4,    0.2,    0.3,    0.5,    0.9,    1.1,    0.0,    3.0,    3.7,    5.1,    7.2,    7.8,    8.7,    5.4,    8.1,    5.1,    4.6,    6.2,   10.8,  999.0,  999.0,  999.0,  999.0,  999.0,    0.1,   -0.1,   -0.2,   -0.1,   -0.0,   -0.0,    0.2,   -0.5,    0.2,   -0.4,    0.0,  999.0,   -0.0,  999.0,  999.0,  999.0,  999.0,  999.0,  999.0,    0.0,    0.3,  999.0,   -0.1,  999.0,   -0.2,   -0.0,   -0.1,   -0.2,   -0.3,    0.4,    0.3,    0.1,    0.1,   -0.3,    0.2,    0.1,    0.1,   -0.1,   -0.0,   -0.1,   -0.2,  999.0,  999.0,  999.0,  999.0,  999.0,  999.0,  999.0,  999.0,  999.0,  999.0,  999.0,  999.0,  999.0
